Wetterdaten: Freitag, 04.12.2020
Datum Zeit Temp. Aussen Temp. o. S. Temp +5cm Feuchte Auss Luftdruck Regen Sonnenschein Regendauer Solar Windben Empfang
04.12.2020 00:00 4,4 C 3,3 C 4,5 C 91 % 986,6 hPa 0,0 l/m 0 min 0 min 0 W/m 25,7 km/h (4 Bft) 97,87 %
04.12.2020 00:02 4,4 C 3,3 C 4,5 C 91 % 986,5 hPa 0,0 l/m 0 min 0 min 0 W/m 9,7 km/h (2 Bft) 14,29 %
04.12.2020 00:04 4,4 C 3,3 C 4,5 C 90 % 986,5 hPa 0,0 l/m 0 min 0 min 0 W/m 22,5 km/h (4 Bft) 78,95 %
04.12.2020 00:08 4,4 C 3,3 C 4,5 C 90 % 986,5 hPa 0,0 l/m 0 min 0 min 0 W/m 25,7 km/h (4 Bft) 96,81 %
04.12.2020 00:10 4,4 C 3,9 C 4,5 C 90 % 986,3 hPa 0,0 l/m 0 min 0 min 0 W/m 29,0 km/h (5 Bft) 70,21 %
04.12.2020 00:12 4,4 C 3,9 C 4,5 C 90 % 986,3 hPa 0,0 l/m 0 min 0 min 0 W/m 22,5 km/h (4 Bft) 84,21 %
04.12.2020 00:14 4,4 C 3,9 C 4,5 C 90 % 986,2 hPa 0,0 l/m 0 min 0 min 0 W/m 12,9 km/h (3 Bft) 97,87 %
04.12.2020 00:16 4,4 C 3,9 C 4,5 C 90 % 986,3 hPa 0,0 l/m 0 min 0 min 0 W/m 22,5 km/h (4 Bft) 100,00 %
04.12.2020 00:18 4,4 C 3,9 C 4,5 C 90 % 986,3 hPa 0,0 l/m 0 min 2 min 0 W/m 19,3 km/h (3 Bft) 95,74 %
04.12.2020 00:20 4,4 C 3,9 C 4,5 C 90 % 986,2 hPa 0,0 l/m 0 min 0 min 0 W/m 22,5 km/h (4 Bft) 97,87 %
04.12.2020 00:22 4,4 C 3,3 C 4,5 C 90 % 986,2 hPa 0,0 l/m 0 min 2 min 0 W/m 16,1 km/h (3 Bft) 97,87 %
04.12.2020 00:24 4,4 C 3,3 C 4,5 C 90 % 986,1 hPa 0,0 l/m 0 min 2 min 0 W/m 12,9 km/h (3 Bft) 97,87 %
04.12.2020 00:26 4,4 C 3,3 C 4,5 C 90 % 986,1 hPa 0,0 l/m 0 min 2 min 0 W/m 16,1 km/h (3 Bft) 95,74 %
04.12.2020 00:28 4,4 C 3,3 C 4,5 C 90 % 986,0 hPa 0,0 l/m 0 min 2 min 0 W/m 22,5 km/h (4 Bft) 97,83 %
04.12.2020 00:30 4,4 C 3,3 C 4,5 C 90 % 986,0 hPa 0,0 l/m 0 min 0 min 0 W/m 16,1 km/h (3 Bft) 97,87 %
04.12.2020 00:32 4,3 C 3,3 C 3,9 C 90 % 986,0 hPa 0,0 l/m 0 min 2 min 0 W/m 16,1 km/h (3 Bft) 97,87 %
04.12.2020 00:34 4,3 C 3,3 C 3,9 C 90 % 985,9 hPa 0,0 l/m 0 min 2 min 0 W/m 16,1 km/h (3 Bft) 97,87 %
04.12.2020 00:36 4,3 C 2,8 C 3,9 C 91 % 985,9 hPa 0,0 l/m 0 min 2 min 0 W/m 22,5 km/h (4 Bft) 97,87 %
04.12.2020 00:38 4,3 C 2,8 C 3,9 C 91 % 985,9 hPa 0,0 l/m 0 min 2 min 0 W/m 19,3 km/h (3 Bft) 97,87 %
04.12.2020 00:40 4,3 C 2,8 C 3,9 C 91 % 985,8 hPa 0,0 l/m 0 min 2 min 0 W/m 16,1 km/h (3 Bft) 97,83 %
04.12.2020 00:42 4,3 C 2,8 C 3,9 C 91 % 985,7 hPa 0,0 l/m 0 min 2 min 0 W/m 22,5 km/h (4 Bft) 96,43 %
04.12.2020 00:44 4,3 C 2,8 C 3,9 C 91 % 985,7 hPa 0,0 l/m 0 min 2 min 0 W/m 22,5 km/h (4 Bft) 97,87 %
04.12.2020 00:46 4,3 C 2,8 C 3,9 C 91 % 985,6 hPa 0,0 l/m 0 min 2 min 0 W/m 19,3 km/h (3 Bft) 97,83 %
04.12.2020 00:48 4,2 C 2,8 C 3,9 C 91 % 985,5 hPa 0,0 l/m 0 min 2 min 0 W/m 22,5 km/h (4 Bft) 97,87 %
04.12.2020 00:50 4,2 C 2,8 C 3,9 C 91 % 985,5 hPa 0,0 l/m 0 min 2 min 0 W/m 19,3 km/h (3 Bft) 97,87 %
04.12.2020 00:52 4,2 C 2,8 C 3,9 C 91 % 985,4 hPa 0,0 l/m 0 min 2 min 0 W/m 22,5 km/h (4 Bft) 97,87 %
04.12.2020 00:54 4,2 C 2,8 C 3,9 C 91 % 985,4 hPa 0,0 l/m 0 min 2 min 0 W/m 16,1 km/h (3 Bft) 97,87 %
04.12.2020 00:56 4,2 C 2,8 C 3,9 C 91 % 985,4 hPa 0,0 l/m 0 min 2 min 0 W/m 19,3 km/h (3 Bft) 95,74 %
04.12.2020 00:58 4,1 C 2,8 C 3,9 C 91 % 985,3 hPa 0,0 l/m 0 min 2 min 0 W/m 16,1 km/h (3 Bft) 97,83 %
04.12.2020 01:00 4,1 C 2,8 C 3,9 C 91 % 985,3 hPa 0,0 l/m 0 min 0 min 0 W/m 19,3 km/h (3 Bft) 95,74 %
04.12.2020 01:02 4,1 C 3,3 C 3,9 C 91 % 985,3 hPa 0,0 l/m 0 min 2 min 0 W/m 25,7 km/h (4 Bft) 95,74 %
04.12.2020 01:04 4,1 C 3,3 C 3,9 C 91 % 985,3 hPa 0,0 l/m 0 min 2 min 0 W/m 22,5 km/h (4 Bft) 97,87 %
04.12.2020 01:06 4,1 C 3,3 C 3,9 C 91 % 985,2 hPa 0,0 l/m 0 min 2 min 0 W/m 19,3 km/h (3 Bft) 97,87 %
04.12.2020 01:08 4,1 C 3,3 C 3,9 C 91 % 985,2 hPa 0,0 l/m 0 min 0 min 0 W/m 16,1 km/h (3 Bft) 97,87 %
04.12.2020 01:10 4,1 C 3,3 C 3,9 C 91 % 985,0 hPa 0,0 l/m 0 min 0 min 0 W/m 16,1 km/h (3 Bft) 97,83 %
04.12.2020 01:12 4,1 C 3,3 C 3,9 C 91 % 985,0 hPa 0,0 l/m 0 min 0 min 0 W/m 16,1 km/h (3 Bft) 41,18 %
04.12.2020 01:14 4,1 C 3,3 C 3,9 C 91 % 985,0 hPa 0,0 l/m 0 min 0 min 0 W/m 25,7 km/h (4 Bft) 100,00 %
04.12.2020 01:16 4,1 C 2,8 C 3,9 C 91 % 984,9 hPa 0,0 l/m 0 min 2 min 0 W/m 19,3 km/h (3 Bft) 97,87 %
04.12.2020 01:18 4,1 C 2,8 C 3,9 C 91 % 985,0 hPa 0,0 l/m 0 min 2 min 0 W/m 19,3 km/h (3 Bft) 100,00 %
04.12.2020 01:20 4,1 C 2,8 C 3,9 C 91 % 985,0 hPa 0,0 l/m 0 min 2 min 0 W/m 25,7 km/h (4 Bft) 97,87 %
04.12.2020 01:22 4,1 C 2,8 C 3,9 C 92 % 984,9 hPa 0,0 l/m 0 min 2 min 0 W/m 16,1 km/h (3 Bft) 100,00 %
04.12.2020 01:24 4,1 C 2,8 C 3,9 C 92 % 984,9 hPa 0,0 l/m 0 min 2 min 0 W/m 22,5 km/h (4 Bft) 100,00 %
04.12.2020 01:26 4,1 C 2,8 C 3,9 C 92 % 984,8 hPa 0,0 l/m 0 min 2 min 0 W/m 16,1 km/h (3 Bft) 97,87 %
04.12.2020 01:28 4,0 C 2,8 C 3,9 C 92 % 984,7 hPa 0,2 l/m 0 min 2 min 0 W/m 25,7 km/h (4 Bft) 100,00 %
04.12.2020 01:30 4,0 C 2,8 C 3,9 C 92 % 984,7 hPa 0,0 l/m 0 min 2 min 0 W/m 19,3 km/h (3 Bft) 97,87 %
04.12.2020 01:32 4,0 C 2,8 C 3,9 C 92 % 984,7 hPa 0,0 l/m 0 min 2 min 0 W/m 19,3 km/h (3 Bft) 100,00 %
04.12.2020 01:34 4,0 C 2,8 C 3,9 C 92 % 984,6 hPa 0,0 l/m 0 min 2 min 0 W/m 22,5 km/h (4 Bft) 100,00 %
04.12.2020 01:36 4,0 C 2,8 C 3,9 C 92 % 984,7 hPa 0,0 l/m 0 min 2 min 0 W/m 19,3 km/h (3 Bft) 97,87 %
04.12.2020 01:38 4,0 C 2,8 C 3,9 C 92 % 984,5 hPa 0,0 l/m 0 min 2 min 0 W/m 19,3 km/h (3 Bft) 100,00 %
04.12.2020 01:40 4,0 C 2,8 C 3,9 C 92 % 984,6 hPa 0,0 l/m 0 min 2 min 0 W/m 9,7 km/h (2 Bft) 97,87 %
04.12.2020 01:42 4,0 C 2,8 C 3,9 C 92 % 984,6 hPa 0,0 l/m 0 min 2 min 0 W/m 16,1 km/h (3 Bft) 100,00 %
04.12.2020 01:44 4,0 C 2,8 C 3,9 C 93 % 984,5 hPa 0,0 l/m 0 min 2 min 0 W/m 19,3 km/h (3 Bft) 100,00 %
04.12.2020 01:46 4,0 C 2,8 C 3,9 C 93 % 984,5 hPa 0,0 l/m 0 min 2 min 0 W/m 16,1 km/h (3 Bft) 97,87 %
04.12.2020 01:48 4,0 C 2,8 C 3,9 C 93 % 984,5 hPa 0,0 l/m 0 min 0 min 0 W/m 22,5 km/h (4 Bft) 97,87 %
04.12.2020 01:50 3,9 C 2,8 C 3,9 C 93 % 984,4 hPa 0,0 l/m 0 min 0 min 0 W/m 16,1 km/h (3 Bft) 95,74 %
04.12.2020 01:52 4,0 C 2,8 C 3,9 C 93 % 984,3 hPa 0,0 l/m 0 min 0 min 0 W/m 19,3 km/h (3 Bft) 97,87 %
04.12.2020 01:54 3,9 C 2,8 C 3,9 C 93 % 984,2 hPa 0,0 l/m 0 min 0 min 0 W/m 22,5 km/h (4 Bft) 97,87 %
04.12.2020 01:56 3,9 C 2,8 C 3,9 C 93 % 984,3 hPa 0,0 l/m 0 min 0 min 0 W/m 16,1 km/h (3 Bft) 97,83 %
04.12.2020 01:58 3,9 C 2,8 C 3,9 C 93 % 984,2 hPa 0,0 l/m 0 min 2 min 0 W/m 22,5 km/h (4 Bft) 97,87 %
04.12.2020 02:00 3,9 C 2,8 C 3,9 C 93 % 984,2 hPa 0,0 l/m 0 min 0 min 0 W/m 16,1 km/h (3 Bft) 95,74 %
04.12.2020 02:02 3,9 C 2,8 C 3,9 C 93 % 984,3 hPa 0,0 l/m 0 min 0 min 0 W/m 25,7 km/h (4 Bft) 97,87 %
04.12.2020 02:04 3,9 C 2,8 C 3,9 C 93 % 984,1 hPa 0,0 l/m 0 min 0 min 0 W/m 22,5 km/h (4 Bft) 97,87 %
04.12.2020 02:06 3,9 C 2,8 C 3,9 C 93 % 984,2 hPa 0,0 l/m 0 min 2 min 0 W/m 25,7 km/h (4 Bft) 95,74 %
04.12.2020 02:08 4,0 C 2,8 C 3,9 C 93 % 984,2 hPa 0,0 l/m 0 min 0 min 0 W/m 19,3 km/h (3 Bft) 95,65 %
04.12.2020 02:10 3,9 C 2,8 C 3,9 C 93 % 984,2 hPa 0,0 l/m 0 min 0 min 0 W/m 9,7 km/h (2 Bft) 97,87 %
04.12.2020 02:12 4,0 C 2,8 C 3,9 C 93 % 984,2 hPa 0,0 l/m 0 min 0 min 0 W/m 19,3 km/h (3 Bft) 95,74 %
04.12.2020 02:14 4,0 C 2,8 C 3,9 C 93 % 984,2 hPa 0,0 l/m 0 min 0 min 0 W/m 29,0 km/h (5 Bft) 95,74 %
04.12.2020 02:16 4,0 C 2,8 C 3,9 C 93 % 984,0 hPa 0,0 l/m 0 min 2 min 0 W/m 19,3 km/h (3 Bft) 97,87 %
04.12.2020 02:18 4,0 C 2,8 C 3,9 C 93 % 984,2 hPa 0,0 l/m 0 min 2 min 0 W/m 22,5 km/h (4 Bft) 97,87 %
04.12.2020 02:20 4,0 C 2,8 C 3,9 C 93 % 984,1 hPa 0,0 l/m 0 min 2 min 0 W/m 29,0 km/h (5 Bft) 97,83 %
04.12.2020 02:22 4,0 C 2,8 C 3,9 C 93 % 984,1 hPa 0,0 l/m 0 min 2 min 0 W/m 29,0 km/h (5 Bft) 97,87 %
04.12.2020 02:24 4,0 C 2,8 C 3,9 C 93 % 984,0 hPa 0,0 l/m 0 min 0 min 0 W/m 25,7 km/h (4 Bft) 100,00 %
04.12.2020 02:26 4,0 C 2,8 C 3,9 C 93 % 984,0 hPa 0,0 l/m 0 min 0 min 0 W/m 35,4 km/h (5 Bft) 100,00 %
04.12.2020 02:28 4,0 C 2,8 C 3,9 C 93 % 983,9 hPa 0,0 l/m 0 min 2 min 0 W/m 25,7 km/h (4 Bft) 100,00 %
04.12.2020 02:30 4,0 C 3,3 C 3,9 C 93 % 983,9 hPa 0,0 l/m 0 min 2 min 0 W/m 16,1 km/h (3 Bft) 100,00 %
04.12.2020 02:32 4,0 C 3,3 C 3,9 C 93 % 983,8 hPa 0,0 l/m 0 min 2 min 0 W/m 22,5 km/h (4 Bft) 100,00 %
04.12.2020 02:34 4,0 C 3,3 C 3,9 C 93 % 983,8 hPa 0,0 l/m 0 min 2 min 0 W/m 22,5 km/h (4 Bft) 100,00 %
04.12.2020 02:36 4,0 C 3,3 C 3,9 C 93 % 983,8 hPa 0,0 l/m 0 min 2 min 0 W/m 35,4 km/h (5 Bft) 100,00 %
04.12.2020 02:38 4,0 C 3,3 C 3,9 C 93 % 983,8 hPa 0,0 l/m 0 min 2 min 0 W/m 29,0 km/h (5 Bft) 100,00 %
04.12.2020 02:40 4,0 C 3,3 C 3,9 C 93 % 983,7 hPa 0,0 l/m 0 min 2 min 0 W/m 22,5 km/h (4 Bft) 100,00 %
04.12.2020 02:42 4,0 C 3,3 C 3,9 C 93 % 983,7 hPa 0,0 l/m 0 min 2 min 0 W/m 16,1 km/h (3 Bft) 100,00 %
04.12.2020 02:44 4,0 C 3,3 C 3,9 C 93 % 983,6 hPa 0,0 l/m 0 min 0 min 0 W/m 19,3 km/h (3 Bft) 100,00 %
04.12.2020 02:46 4,1 C 3,3 C 3,9 C 93 % 983,6 hPa 0,0 l/m 0 min 2 min 0 W/m 41,8 km/h (6 Bft) 100,00 %
04.12.2020 02:48 4,0 C 3,3 C 3,9 C 93 % 983,5 hPa 0,0 l/m 0 min 2 min 0 W/m 22,5 km/h (4 Bft) 100,00 %
04.12.2020 02:50 4,1 C 3,3 C 3,9 C 93 % 983,5 hPa 0,0 l/m 0 min 2 min 0 W/m 19,3 km/h (3 Bft) 100,00 %
04.12.2020 02:52 4,1 C 3,3 C 3,9 C 93 % 983,4 hPa 0,0 l/m 0 min 2 min 0 W/m 25,7 km/h (4 Bft) 100,00 %
04.12.2020 02:54 4,1 C 3,3 C 3,9 C 93 % 983,5 hPa 0,0 l/m 0 min 0 min 0 W/m 16,1 km/h (3 Bft) 97,83 %
04.12.2020 02:56 4,1 C 3,3 C 3,9 C 93 % 983,4 hPa 0,0 l/m 0 min 0 min 0 W/m 32,2 km/h (5 Bft) 100,00 %
04.12.2020 02:58 4,1 C 3,3 C 3,9 C 93 % 983,4 hPa 0,0 l/m 0 min 0 min 0 W/m 22,5 km/h (4 Bft) 100,00 %
04.12.2020 03:00 4,1 C 3,3 C 3,9 C 93 % 983,3 hPa 0,0 l/m 0 min 0 min 0 W/m 12,9 km/h (3 Bft) 100,00 %
04.12.2020 03:02 4,1 C 3,3 C 3,9 C 92 % 983,2 hPa 0,0 l/m 0 min 0 min 0 W/m 25,7 km/h (4 Bft) 100,00 %
04.12.2020 03:04 4,1 C 3,3 C 3,9 C 92 % 983,2 hPa 0,0 l/m 0 min 0 min 0 W/m 29,0 km/h (5 Bft) 100,00 %
04.12.2020 03:06 4,1 C 3,3 C 3,9 C 93 % 983,2 hPa 0,0 l/m 0 min 0 min 0 W/m 32,2 km/h (5 Bft) 100,00 %
04.12.2020 03:08 4,1 C 3,3 C 3,9 C 92 % 983,1 hPa 0,0 l/m 0 min 0 min 0 W/m 25,7 km/h (4 Bft) 97,87 %
04.12.2020 03:10 4,1 C 3,3 C 3,9 C 92 % 983,1 hPa 0,0 l/m 0 min 0 min 0 W/m 25,7 km/h (4 Bft) 100,00 %
04.12.2020 03:12 4,1 C 3,3 C 3,9 C 92 % 983,2 hPa 0,0 l/m 0 min 0 min 0 W/m 29,0 km/h (5 Bft) 52,27 %
04.12.2020 03:14 4,2 C 3,3 C 3,9 C 92 % 983,1 hPa 0,0 l/m 0 min 0 min 0 W/m 32,2 km/h (5 Bft) 100,00 %
04.12.2020 03:16 4,2 C 3,3 C 3,9 C 92 % 983,1 hPa 0,0 l/m 0 min 0 min 0 W/m 32,2 km/h (5 Bft) 100,00 %
04.12.2020 03:18 4,2 C 3,3 C 3,9 C 92 % 983,1 hPa 0,0 l/m 0 min 0 min 0 W/m 29,0 km/h (5 Bft) 100,00 %
04.12.2020 03:20 4,2 C 3,9 C 4,5 C 92 % 983,1 hPa 0,0 l/m 0 min 0 min 0 W/m 29,0 km/h (5 Bft) 100,00 %
04.12.2020 03:22 4,3 C 3,9 C 4,5 C 92 % 983,0 hPa 0,0 l/m 0 min 0 min 0 W/m 29,0 km/h (5 Bft) 95,74 %
04.12.2020 03:24 4,3 C 3,9 C 4,5 C 92 % 982,9 hPa 0,0 l/m 0 min 0 min 0 W/m 19,3 km/h (3 Bft) 100,00 %
04.12.2020 03:26 4,3 C 3,9 C 4,5 C 91 % 982,9 hPa 0,0 l/m 0 min 0 min 0 W/m 19,3 km/h (3 Bft) 97,87 %
04.12.2020 03:28 4,3 C 3,9 C 4,5 C 91 % 982,9 hPa 0,0 l/m 0 min 0 min 0 W/m 16,1 km/h (3 Bft) 93,62 %
04.12.2020 03:30 4,3 C 3,9 C 4,5 C 91 % 982,9 hPa 0,0 l/m 0 min 0 min 0 W/m 16,1 km/h (3 Bft) 97,83 %
04.12.2020 03:32 4,3 C 3,9 C 4,5 C 92 % 982,7 hPa 0,0 l/m 0 min 0 min 0 W/m 19,3 km/h (3 Bft) 97,87 %
04.12.2020 03:34 4,3 C 3,9 C 4,5 C 92 % 982,7 hPa 0,0 l/m 0 min 0 min 0 W/m 19,3 km/h (3 Bft) 93,62 %
04.12.2020 03:36 4,3 C 3,9 C 4,5 C 91 % 982,7 hPa 0,0 l/m 0 min 0 min 0 W/m 16,1 km/h (3 Bft) 95,74 %
04.12.2020 03:38 4,3 C 3,9 C 4,5 C 91 % 982,7 hPa 0,0 l/m 0 min 0 min 0 W/m 22,5 km/h (4 Bft) 97,87 %
04.12.2020 03:40 4,3 C 3,9 C 4,5 C 91 % 982,5 hPa 0,0 l/m 0 min 0 min 0 W/m 22,5 km/h (4 Bft) 97,87 %
04.12.2020 03:42 4,3 C 3,9 C 4,5 C 91 % 982,7 hPa 0,0 l/m 0 min 0 min 0 W/m 16,1 km/h (3 Bft) 95,65 %
04.12.2020 03:44 4,3 C 3,9 C 4,5 C 91 % 982,6 hPa 0,0 l/m 0 min 0 min 0 W/m 22,5 km/h (4 Bft) 95,74 %
04.12.2020 03:46 4,3 C 3,9 C 4,5 C 91 % 982,5 hPa 0,0 l/m 0 min 0 min 0 W/m 16,1 km/h (3 Bft) 97,87 %
04.12.2020 03:48 4,3 C 3,9 C 4,5 C 91 % 982,5 hPa 0,0 l/m 0 min 0 min 0 W/m 9,7 km/h (2 Bft) 95,74 %
04.12.2020 03:50 4,3 C 3,9 C 4,5 C 91 % 982,5 hPa 0,0 l/m 0 min 0 min 0 W/m 19,3 km/h (3 Bft) 95,74 %
04.12.2020 03:52 4,3 C 3,9 C 4,5 C 91 % 982,4 hPa 0,0 l/m 0 min 0 min 0 W/m 32,2 km/h (5 Bft) 97,83 %
04.12.2020 03:54 4,3 C 3,9 C 4,5 C 91 % 982,4 hPa 0,0 l/m 0 min 0 min 0 W/m 12,9 km/h (3 Bft) 97,87 %
04.12.2020 03:56 4,3 C 3,9 C 4,5 C 91 % 982,3 hPa 0,0 l/m 0 min 0 min 0 W/m 22,5 km/h (4 Bft) 97,87 %
04.12.2020 03:58 4,3 C 3,9 C 4,5 C 91 % 982,3 hPa 0,0 l/m 0 min 0 min 0 W/m 16,1 km/h (3 Bft) 95,74 %
04.12.2020 04:00 4,3 C 3,9 C 4,5 C 91 % 982,3 hPa 0,0 l/m 0 min 0 min 0 W/m 29,0 km/h (5 Bft) 97,87 %
04.12.2020 04:02 4,3 C 3,9 C 4,5 C 91 % 982,2 hPa 0,0 l/m 0 min 0 min 0 W/m 19,3 km/h (3 Bft) 100,00 %
04.12.2020 04:04 4,3 C 3,9 C 4,5 C 91 % 982,2 hPa 0,0 l/m 0 min 0 min 0 W/m 25,7 km/h (4 Bft) 95,65 %
04.12.2020 04:06 4,3 C 3,9 C 4,5 C 91 % 982,2 hPa 0,0 l/m 0 min 0 min 0 W/m 29,0 km/h (5 Bft) 91,49 %
04.12.2020 04:08 4,3 C 3,9 C 4,5 C 91 % 982,2 hPa 0,0 l/m 0 min 0 min 0 W/m 19,3 km/h (3 Bft) 91,49 %
04.12.2020 04:10 4,3 C 3,9 C 4,5 C 91 % 982,2 hPa 0,0 l/m 0 min 0 min 0 W/m 22,5 km/h (4 Bft) 97,87 %
04.12.2020 04:12 4,3 C 3,9 C 4,5 C 90 % 982,1 hPa 0,0 l/m 0 min 0 min 0 W/m 35,4 km/h (5 Bft) 95,74 %
04.12.2020 04:14 4,3 C 3,9 C 4,5 C 90 % 982,2 hPa 0,0 l/m 0 min 0 min 0 W/m 12,9 km/h (3 Bft) 52,38 %
04.12.2020 04:16 4,2 C 3,9 C 4,5 C 90 % 982,1 hPa 0,0 l/m 0 min 0 min 0 W/m 22,5 km/h (4 Bft) 95,65 %
04.12.2020 04:18 4,3 C 3,9 C 4,5 C 90 % 982,1 hPa 0,0 l/m 0 min 0 min 0 W/m 22,5 km/h (4 Bft) 95,74 %
04.12.2020 04:20 4,3 C 3,9 C 4,5 C 90 % 982,0 hPa 0,0 l/m 0 min 0 min 0 W/m 22,5 km/h (4 Bft) 97,87 %
04.12.2020 04:22 4,2 C 3,9 C 4,5 C 90 % 982,1 hPa 0,0 l/m 0 min 0 min 0 W/m 29,0 km/h (5 Bft) 97,87 %
04.12.2020 04:24 4,3 C 3,9 C 4,5 C 90 % 982,0 hPa 0,0 l/m 0 min 0 min 0 W/m 25,7 km/h (4 Bft) 97,87 %
04.12.2020 04:26 4,2 C 3,9 C 4,5 C 90 % 982,1 hPa 0,0 l/m 0 min 0 min 0 W/m 29,0 km/h (5 Bft) 97,87 %
04.12.2020 04:28 4,2 C 3,9 C 4,5 C 91 % 982,1 hPa 0,0 l/m 0 min 0 min 0 W/m 19,3 km/h (3 Bft) 97,83 %
04.12.2020 04:30 4,2 C 3,9 C 4,5 C 91 % 982,0 hPa 0,0 l/m 0 min 0 min 0 W/m 22,5 km/h (4 Bft) 95,74 %
04.12.2020 04:32 4,2 C 3,9 C 4,5 C 91 % 982,0 hPa 0,0 l/m 0 min 0 min 0 W/m 22,5 km/h (4 Bft) 97,92 %
04.12.2020 04:34 4,2 C 3,9 C 4,5 C 91 % 982,0 hPa 0,0 l/m 0 min 0 min 0 W/m 29,0 km/h (5 Bft) 97,87 %
04.12.2020 04:36 4,2 C 3,9 C 4,5 C 91 % 982,1 hPa 0,0 l/m 0 min 0 min 0 W/m 32,2 km/h (5 Bft) 95,74 %
04.12.2020 04:38 4,2 C 3,9 C 4,5 C 91 % 982,1 hPa 0,0 l/m 0 min 0 min 0 W/m 22,5 km/h (4 Bft) 97,87 %
04.12.2020 04:40 4,2 C 3,9 C 4,5 C 91 % 982,2 hPa 0,0 l/m 0 min 0 min 0 W/m 29,0 km/h (5 Bft) 97,83 %
04.12.2020 04:42 4,2 C 3,9 C 4,5 C 91 % 982,1 hPa 0,0 l/m 0 min 0 min 0 W/m 38,6 km/h (5 Bft) 97,87 %
04.12.2020 04:44 4,2 C 3,9 C 4,5 C 91 % 982,1 hPa 0,0 l/m 0 min 0 min 0 W/m 35,4 km/h (5 Bft) 100,00 %
04.12.2020 04:46 4,2 C 3,9 C 4,5 C 91 % 982,2 hPa 0,0 l/m 0 min 0 min 0 W/m 29,0 km/h (5 Bft) 100,00 %
04.12.2020 04:48 4,2 C 3,9 C 4,5 C 91 % 982,1 hPa 0,0 l/m 0 min 0 min 0 W/m 22,5 km/h (4 Bft) 100,00 %
04.12.2020 04:50 4,2 C 3,9 C 4,5 C 91 % 982,2 hPa 0,0 l/m 0 min 0 min 0 W/m 35,4 km/h (5 Bft) 100,00 %
04.12.2020 04:52 4,2 C 3,9 C 4,5 C 91 % 982,1 hPa 0,0 l/m 0 min 0 min 0 W/m 29,0 km/h (5 Bft) 100,00 %
04.12.2020 04:54 4,3 C 3,9 C 4,5 C 91 % 982,1 hPa 0,0 l/m 0 min 0 min 0 W/m 29,0 km/h (5 Bft) 100,00 %
04.12.2020 04:56 4,3 C 3,9 C 4,5 C 91 % 982,1 hPa 0,0 l/m 0 min 0 min 0 W/m 25,7 km/h (4 Bft) 97,87 %
04.12.2020 04:58 4,3 C 3,9 C 4,5 C 91 % 982,1 hPa 0,0 l/m 0 min 0 min 0 W/m 32,2 km/h (5 Bft) 100,00 %
04.12.2020 05:00 4,3 C 3,9 C 4,5 C 91 % 982,2 hPa 0,0 l/m 0 min 0 min 0 W/m 22,5 km/h (4 Bft) 100,00 %
04.12.2020 05:02 4,3 C 3,9 C 4,5 C 91 % 982,1 hPa 0,0 l/m 0 min 0 min 0 W/m 41,8 km/h (6 Bft) 97,87 %
04.12.2020 05:04 4,3 C 3,9 C 5,0 C 91 % 981,9 hPa 0,0 l/m 0 min 0 min 0 W/m 25,7 km/h (4 Bft) 100,00 %
04.12.2020 05:06 4,3 C 3,9 C 5,0 C 91 % 982,1 hPa 0,0 l/m 0 min 0 min 0 W/m 32,2 km/h (5 Bft) 100,00 %
04.12.2020 05:08 4,3 C 3,9 C 5,0 C 91 % 981,9 hPa 0,0 l/m 0 min 0 min 0 W/m 25,7 km/h (4 Bft) 100,00 %
04.12.2020 05:10 4,3 C 3,9 C 5,0 C 90 % 981,9 hPa 0,0 l/m 0 min 0 min 0 W/m 22,5 km/h (4 Bft) 97,87 %
04.12.2020 05:12 4,3 C 3,9 C 5,0 C 90 % 982,0 hPa 0,0 l/m 0 min 0 min 0 W/m 25,7 km/h (4 Bft) 97,87 %
04.12.2020 05:14 4,3 C 3,9 C 5,0 C 90 % 982,0 hPa 0,0 l/m 0 min 0 min 0 W/m 16,1 km/h (3 Bft) 100,00 %
04.12.2020 05:16 4,4 C 3,9 C 5,0 C 90 % 982,0 hPa 0,0 l/m 0 min 0 min 0 W/m 22,5 km/h (4 Bft) 100,00 %
04.12.2020 05:18 4,4 C 3,9 C 5,0 C 90 % 982,0 hPa 0,0 l/m 0 min 0 min 0 W/m 16,1 km/h (3 Bft) 100,00 %
04.12.2020 05:20 4,4 C 3,9 C 5,0 C 90 % 982,0 hPa 0,0 l/m 0 min 0 min 0 W/m 29,0 km/h (5 Bft) 100,00 %
04.12.2020 05:22 4,4 C 3,9 C 5,0 C 90 % 982,1 hPa 0,0 l/m 0 min 0 min 0 W/m 25,7 km/h (4 Bft) 100,00 %
04.12.2020 05:24 4,4 C 3,9 C 5,0 C 91 % 982,1 hPa 0,0 l/m 0 min 0 min 0 W/m 22,5 km/h (4 Bft) 100,00 %
04.12.2020 05:26 4,4 C 3,9 C 5,0 C 91 % 982,0 hPa 0,0 l/m 0 min 0 min 0 W/m 25,7 km/h (4 Bft) 100,00 %
04.12.2020 05:28 4,4 C 3,9 C 5,0 C 91 % 982,1 hPa 0,0 l/m 0 min 0 min 0 W/m 25,7 km/h (4 Bft) 100,00 %
04.12.2020 05:30 4,5 C 3,9 C 5,0 C 90 % 982,1 hPa 0,0 l/m 0 min 0 min 0 W/m 19,3 km/h (3 Bft) 100,00 %
04.12.2020 05:32 4,5 C 3,9 C 5,0 C 90 % 982,1 hPa 0,0 l/m 0 min 0 min 0 W/m 29,0 km/h (5 Bft) 100,00 %
04.12.2020 05:34 4,5 C 3,9 C 5,0 C 90 % 982,1 hPa 0,0 l/m 0 min 0 min 0 W/m 25,7 km/h (4 Bft) 100,00 %
04.12.2020 05:36 4,5 C 3,9 C 5,0 C 90 % 982,1 hPa 0,0 l/m 0 min 0 min 0 W/m 29,0 km/h (5 Bft) 100,00 %
04.12.2020 05:38 4,5 C 3,9 C 5,0 C 90 % 982,1 hPa 0,0 l/m 0 min 0 min 0 W/m 32,2 km/h (5 Bft) 100,00 %
04.12.2020 05:40 4,5 C 3,9 C 5,0 C 90 % 982,1 hPa 0,0 l/m 0 min 0 min 0 W/m 22,5 km/h (4 Bft) 100,00 %
04.12.2020 05:42 4,5 C 3,9 C 5,0 C 90 % 982,2 hPa 0,0 l/m 0 min 0 min 0 W/m 25,7 km/h (4 Bft) 97,87 %
04.12.2020 05:44 4,5 C 4,4 C 5,0 C 90 % 982,1 hPa 0,0 l/m 0 min 0 min 0 W/m 19,3 km/h (3 Bft) 100,00 %
04.12.2020 05:46 4,5 C 4,4 C 5,0 C 90 % 982,2 hPa 0,0 l/m 0 min 0 min 0 W/m 19,3 km/h (3 Bft) 100,00 %
04.12.2020 05:48 4,5 C 4,4 C 5,0 C 90 % 982,2 hPa 0,0 l/m 0 min 0 min 0 W/m 22,5 km/h (4 Bft) 100,00 %
04.12.2020 05:50 4,6 C 4,4 C 5,0 C 90 % 982,2 hPa 0,0 l/m 0 min 0 min 0 W/m 32,2 km/h (5 Bft) 100,00 %
04.12.2020 05:52 4,6 C 4,4 C 5,0 C 90 % 982,2 hPa 0,0 l/m 0 min 0 min 0 W/m 25,7 km/h (4 Bft) 100,00 %
04.12.2020 05:54 4,6 C 4,4 C 5,0 C 90 % 982,1 hPa 0,0 l/m 0 min 0 min 0 W/m 29,0 km/h (5 Bft) 100,00 %
04.12.2020 05:56 4,6 C 4,4 C 5,0 C 90 % 982,1 hPa 0,0 l/m 0 min 0 min 0 W/m 22,5 km/h (4 Bft) 100,00 %
04.12.2020 05:58 4,6 C 4,4 C 5,0 C 90 % 982,1 hPa 0,0 l/m 0 min 0 min 0 W/m 29,0 km/h (5 Bft) 100,00 %
04.12.2020 06:00 4,7 C 4,4 C 5,0 C 90 % 982,2 hPa 0,0 l/m 0 min 0 min 0 W/m 35,4 km/h (5 Bft) 97,87 %
04.12.2020 06:02 4,7 C 4,4 C 5,0 C 90 % 982,1 hPa 0,0 l/m 0 min 0 min 0 W/m 19,3 km/h (3 Bft) 100,00 %
04.12.2020 06:04 4,8 C 4,4 C 5,0 C 91 % 982,1 hPa 0,0 l/m 0 min 0 min 0 W/m 25,7 km/h (4 Bft) 100,00 %
04.12.2020 06:08 4,8 C 4,4 C 5,0 C 91 % 982,1 hPa 0,0 l/m 0 min 0 min 0 W/m 29,0 km/h (5 Bft) 100,00 %
04.12.2020 06:10 4,8 C 4,4 C 5,0 C 90 % 982,1 hPa 0,0 l/m 0 min 0 min 0 W/m 16,1 km/h (3 Bft) 100,00 %
04.12.2020 06:12 4,8 C 4,4 C 5,0 C 90 % 982,1 hPa 0,0 l/m 0 min 0 min 0 W/m 22,5 km/h (4 Bft) 97,83 %
04.12.2020 06:14 4,8 C 4,4 C 5,0 C 90 % 982,1 hPa 0,0 l/m 0 min 0 min 0 W/m 25,7 km/h (4 Bft) 97,87 %
04.12.2020 06:16 4,8 C 4,4 C 5,0 C 90 % 982,1 hPa 0,0 l/m 0 min 0 min 0 W/m 19,3 km/h (3 Bft) 97,87 %
04.12.2020 06:18 4,8 C 4,4 C 5,0 C 90 % 982,0 hPa 0,0 l/m 0 min 0 min 0 W/m 19,3 km/h (3 Bft) 100,00 %
04.12.2020 06:20 4,8 C 4,4 C 5,0 C 90 % 982,1 hPa 0,0 l/m 0 min 0 min 0 W/m 19,3 km/h (3 Bft) 95,74 %
04.12.2020 06:22 4,8 C 4,4 C 5,0 C 90 % 982,1 hPa 0,0 l/m 0 min 0 min 0 W/m 19,3 km/h (3 Bft) 100,00 %
04.12.2020 06:24 4,8 C 4,4 C 5,0 C 90 % 982,0 hPa 0,0 l/m 0 min 0 min 0 W/m 16,1 km/h (3 Bft) 93,62 %
04.12.2020 06:26 4,9 C 4,4 C 5,0 C 90 % 982,1 hPa 0,0 l/m 0 min 0 min 0 W/m 22,5 km/h (4 Bft) 95,65 %
04.12.2020 06:28 4,9 C 4,4 C 5,0 C 90 % 982,0 hPa 0,0 l/m 0 min 0 min 0 W/m 25,7 km/h (4 Bft) 97,87 %
04.12.2020 06:30 4,9 C 4,4 C 5,0 C 90 % 982,1 hPa 0,0 l/m 0 min 0 min 0 W/m 29,0 km/h (5 Bft) 97,87 %
04.12.2020 06:32 4,9 C 4,4 C 5,0 C 90 % 982,2 hPa 0,0 l/m 0 min 0 min 0 W/m 12,9 km/h (3 Bft) 95,74 %
04.12.2020 06:34 4,9 C 4,4 C 5,0 C 90 % 982,1 hPa 0,0 l/m 0 min 0 min 0 W/m 25,7 km/h (4 Bft) 97,87 %
04.12.2020 06:36 4,9 C 4,4 C 5,0 C 90 % 982,0 hPa 0,0 l/m 0 min 0 min 0 W/m 25,7 km/h (4 Bft) 95,65 %
04.12.2020 06:38 4,9 C 4,4 C 5,0 C 90 % 982,0 hPa 0,0 l/m 0 min 0 min 0 W/m 19,3 km/h (3 Bft) 95,74 %
04.12.2020 06:40 4,9 C 4,4 C 5,0 C 90 % 982,1 hPa 0,0 l/m 0 min 0 min 0 W/m 16,1 km/h (3 Bft) 95,74 %
04.12.2020 06:42 4,9 C 4,4 C 5,0 C 90 % 982,1 hPa 0,0 l/m 0 min 0 min 0 W/m 19,3 km/h (3 Bft) 95,74 %
04.12.2020 06:44 4,9 C 4,4 C 5,0 C 90 % 982,1 hPa 0,0 l/m 0 min 0 min 0 W/m 16,1 km/h (3 Bft) 93,62 %
04.12.2020 06:46 5,0 C 4,4 C 5,0 C 90 % 982,2 hPa 0,0 l/m 0 min 0 min 0 W/m 16,1 km/h (3 Bft) 95,74 %
04.12.2020 06:48 5,0 C 4,4 C 5,0 C 90 % 982,2 hPa 0,0 l/m 0 min 0 min 0 W/m 16,1 km/h (3 Bft) 95,65 %
04.12.2020 06:50 5,0 C 4,4 C 5,0 C 90 % 982,2 hPa 0,0 l/m 0 min 0 min 0 W/m 19,3 km/h (3 Bft) 95,74 %
04.12.2020 06:52 5,0 C 4,4 C 5,0 C 90 % 982,2 hPa 0,0 l/m 0 min 0 min 0 W/m 25,7 km/h (4 Bft) 93,62 %
04.12.2020 06:54 5,0 C 4,4 C 5,0 C 90 % 982,2 hPa 0,0 l/m 0 min 0 min 0 W/m 19,3 km/h (3 Bft) 95,74 %
04.12.2020 06:56 5,0 C 4,4 C 5,0 C 90 % 982,2 hPa 0,0 l/m 0 min 0 min 0 W/m 41,8 km/h (6 Bft) 95,74 %
04.12.2020 06:58 5,0 C 4,4 C 5,0 C 90 % 982,2 hPa 0,0 l/m 0 min 0 min 0 W/m 25,7 km/h (4 Bft) 95,74 %
04.12.2020 07:00 5,0 C 4,4 C 5,0 C 90 % 982,2 hPa 0,0 l/m 0 min 0 min 0 W/m 19,3 km/h (3 Bft) 94,29 %
04.12.2020 07:05 5,0 C 4,4 C 5,0 C 90 % 982,3 hPa 0,0 l/m 0 min 0 min 0 W/m 22,5 km/h (4 Bft) 98,25 %
04.12.2020 07:08 5,0 C 4,4 C 5,0 C 90 % 982,4 hPa 0,0 l/m 0 min 0 min 0 W/m 16,1 km/h (3 Bft) 95,65 %
04.12.2020 07:10 5,0 C 4,4 C 5,0 C 90 % 982,4 hPa 0,0 l/m 0 min 0 min 0 W/m 25,7 km/h (4 Bft) 96,15 %
04.12.2020 07:12 5,0 C 4,4 C 5,0 C 90 % 982,4 hPa 0,0 l/m 0 min 0 min 0 W/m 22,5 km/h (4 Bft) 95,65 %
04.12.2020 07:14 5,0 C 4,4 C 5,6 C 90 % 982,5 hPa 0,0 l/m 0 min 0 min 0 W/m 25,7 km/h (4 Bft) 97,87 %
04.12.2020 07:16 5,0 C 4,4 C 5,6 C 90 % 982,5 hPa 0,0 l/m 0 min 0 min 0 W/m 16,1 km/h (3 Bft) 97,14 %
04.12.2020 07:18 5,0 C 4,4 C 5,6 C 90 % 982,5 hPa 0,0 l/m 0 min 0 min 0 W/m 19,3 km/h (3 Bft) 100,00 %
04.12.2020 07:20 5,1 C 5,0 C 5,6 C 90 % 982,5 hPa 0,0 l/m 0 min 0 min 0 W/m 29,0 km/h (5 Bft) 100,00 %
04.12.2020 07:22 5,1 C 5,0 C 5,6 C 90 % 982,5 hPa 0,0 l/m 0 min 0 min 0 W/m 29,0 km/h (5 Bft) 97,87 %
04.12.2020 07:24 5,1 C 5,0 C 5,6 C 90 % 982,6 hPa 0,0 l/m 0 min 0 min 0 W/m 22,5 km/h (4 Bft) 97,87 %
04.12.2020 07:26 5,1 C 5,0 C 5,6 C 90 % 982,5 hPa 0,0 l/m 0 min 0 min 0 W/m 19,3 km/h (3 Bft) 100,00 %
04.12.2020 07:28 5,1 C 4,4 C 5,6 C 90 % 982,4 hPa 0,0 l/m 0 min 0 min 0 W/m 16,1 km/h (3 Bft) 100,00 %
04.12.2020 07:30 5,2 C 5,0 C 5,6 C 90 % 982,4 hPa 0,0 l/m 0 min 0 min 0 W/m 22,5 km/h (4 Bft) 100,00 %
04.12.2020 07:32 5,2 C 5,0 C 5,6 C 90 % 982,5 hPa 0,0 l/m 0 min 0 min 0 W/m 35,4 km/h (5 Bft) 100,00 %
04.12.2020 07:34 5,2 C 5,0 C 5,6 C 90 % 982,5 hPa 0,0 l/m 0 min 0 min 0 W/m 19,3 km/h (3 Bft) 100,00 %
04.12.2020 07:36 5,2 C 5,0 C 5,6 C 90 % 982,4 hPa 0,0 l/m 0 min 0 min 0 W/m 25,7 km/h (4 Bft) 100,00 %
04.12.2020 07:38 5,2 C 5,0 C 5,6 C 90 % 982,5 hPa 0,0 l/m 0 min 0 min 0 W/m 12,9 km/h (3 Bft) 100,00 %
04.12.2020 07:40 5,3 C 5,0 C 5,6 C 90 % 982,5 hPa 0,0 l/m 0 min 0 min 0 W/m 25,7 km/h (4 Bft) 100,00 %
04.12.2020 07:42 5,3 C 5,0 C 5,6 C 90 % 982,6 hPa 0,0 l/m 0 min 0 min 0 W/m 19,3 km/h (3 Bft) 97,87 %
04.12.2020 07:44 5,3 C 5,0 C 5,6 C 90 % 982,6 hPa 0,0 l/m 0 min 0 min 0 W/m 12,9 km/h (3 Bft) 100,00 %
04.12.2020 07:46 5,3 C 5,0 C 5,6 C 90 % 982,6 hPa 0,0 l/m 0 min 0 min 0 W/m 25,7 km/h (4 Bft) 97,87 %
04.12.2020 07:48 5,3 C 5,0 C 5,6 C 90 % 982,7 hPa 0,0 l/m 0 min 0 min 0 W/m 22,5 km/h (4 Bft) 100,00 %
04.12.2020 07:50 5,3 C 5,0 C 5,6 C 90 % 982,6 hPa 0,0 l/m 0 min 0 min 0 W/m 25,7 km/h (4 Bft) 100,00 %
04.12.2020 07:52 5,3 C 5,0 C 5,6 C 90 % 982,8 hPa 0,0 l/m 0 min 0 min 0 W/m 29,0 km/h (5 Bft) 100,00 %
04.12.2020 07:54 5,3 C 5,0 C 5,6 C 90 % 982,8 hPa 0,0 l/m 0 min 0 min 0 W/m 19,3 km/h (3 Bft) 100,00 %
04.12.2020 07:56 5,4 C 5,0 C 5,6 C 90 % 982,8 hPa 0,0 l/m 0 min 0 min 0 W/m 16,1 km/h (3 Bft) 100,00 %
04.12.2020 07:58 5,4 C 5,0 C 5,6 C 90 % 982,8 hPa 0,0 l/m 0 min 0 min 0 W/m 29,0 km/h (5 Bft) 100,00 %
04.12.2020 08:00 5,4 C 5,0 C 5,6 C 90 % 982,9 hPa 0,0 l/m 0 min 0 min 0 W/m 38,6 km/h (5 Bft) 100,00 %
04.12.2020 08:02 5,4 C 5,0 C 5,6 C 90 % 982,9 hPa 0,0 l/m 0 min 0 min 0 W/m 22,5 km/h (4 Bft) 100,00 %
04.12.2020 08:04 5,4 C 5,0 C 5,6 C 90 % 982,9 hPa 0,0 l/m 0 min 0 min 0 W/m 25,7 km/h (4 Bft) 100,00 %
04.12.2020 08:06 5,4 C 5,0 C 5,6 C 90 % 982,9 hPa 0,0 l/m 0 min 0 min 0 W/m 29,0 km/h (5 Bft) 97,87 %
04.12.2020 08:08 5,4 C 5,0 C 5,6 C 90 % 982,9 hPa 0,0 l/m 0 min 0 min 0 W/m 29,0 km/h (5 Bft) 97,87 %
04.12.2020 08:10 5,4 C 5,0 C 5,6 C 90 % 982,9 hPa 0,0 l/m 0 min 0 min 0 W/m 19,3 km/h (3 Bft) 100,00 %
04.12.2020 08:12 5,4 C 5,0 C 5,6 C 90 % 983,0 hPa 0,0 l/m 0 min 0 min 0 W/m 25,7 km/h (4 Bft) 100,00 %
04.12.2020 08:14 5,4 C 5,0 C 5,6 C 90 % 983,0 hPa 0,0 l/m 0 min 0 min 0 W/m 25,7 km/h (4 Bft) 100,00 %
04.12.2020 08:16 5,4 C 5,0 C 5,6 C 90 % 983,1 hPa 0,0 l/m 0 min 0 min 0 W/m 19,3 km/h (3 Bft) 97,87 %
04.12.2020 08:18 5,4 C 5,0 C 5,6 C 90 % 983,2 hPa 0,0 l/m 0 min 0 min 0 W/m 22,5 km/h (4 Bft) 100,00 %
04.12.2020 08:20 5,5 C 5,0 C 5,6 C 90 % 983,2 hPa 0,0 l/m 0 min 0 min 0 W/m 25,7 km/h (4 Bft) 100,00 %
04.12.2020 08:22 5,5 C 5,0 C 5,6 C 90 % 983,2 hPa 0,0 l/m 0 min 0 min 0 W/m 25,7 km/h (4 Bft) 97,87 %
04.12.2020 08:24 5,5 C 5,0 C 5,6 C 90 % 983,2 hPa 0,0 l/m 0 min 0 min 0 W/m 22,5 km/h (4 Bft) 100,00 %
04.12.2020 08:26 5,5 C 5,0 C 5,6 C 90 % 983,2 hPa 0,0 l/m 0 min 0 min 0 W/m 22,5 km/h (4 Bft) 95,74 %
04.12.2020 08:28 5,5 C 5,0 C 5,6 C 90 % 983,3 hPa 0,0 l/m 0 min 0 min 0 W/m 22,5 km/h (4 Bft) 97,87 %
04.12.2020 08:30 5,5 C 5,0 C 5,6 C 90 % 983,4 hPa 0,0 l/m 0 min 0 min 0 W/m 25,7 km/h (4 Bft) 97,87 %
04.12.2020 08:32 5,5 C 5,0 C 5,6 C 90 % 983,5 hPa 0,0 l/m 0 min 0 min 0 W/m 25,7 km/h (4 Bft) 97,87 %
04.12.2020 08:34 5,5 C 5,0 C 5,6 C 91 % 983,5 hPa 0,0 l/m 0 min 0 min 3 W/m 22,5 km/h (4 Bft) 97,87 %
04.12.2020 08:36 5,5 C 5,0 C 5,6 C 91 % 983,5 hPa 0,0 l/m 0 min 0 min 5 W/m 19,3 km/h (3 Bft) 95,65 %
04.12.2020 08:38 5,5 C 5,0 C 5,6 C 91 % 983,6 hPa 0,0 l/m 0 min 0 min 5 W/m 16,1 km/h (3 Bft) 96,61 %
04.12.2020 08:40 5,5 C 5,0 C 5,6 C 91 % 983,6 hPa 0,0 l/m 0 min 0 min 5 W/m 16,1 km/h (3 Bft) 97,14 %
04.12.2020 08:42 5,5 C 5,0 C 5,6 C 91 % 983,6 hPa 0,0 l/m 0 min 0 min 5 W/m 19,3 km/h (3 Bft) 95,74 %
04.12.2020 08:44 5,5 C 5,0 C 5,6 C 91 % 983,6 hPa 0,0 l/m 0 min 0 min 7 W/m 25,7 km/h (4 Bft) 97,87 %
04.12.2020 08:46 5,5 C 5,0 C 5,6 C 91 % 983,6 hPa 0,0 l/m 0 min 0 min 7 W/m 22,5 km/h (4 Bft) 97,83 %
04.12.2020 08:48 5,6 C 5,0 C 5,6 C 91 % 983,7 hPa 0,0 l/m 0 min 0 min 7 W/m 22,5 km/h (4 Bft) 97,87 %
04.12.2020 08:50 5,6 C 5,0 C 5,6 C 91 % 983,8 hPa 0,0 l/m 0 min 0 min 9 W/m 22,5 km/h (4 Bft) 95,74 %
04.12.2020 08:52 5,6 C 5,0 C 5,6 C 91 % 983,8 hPa 0,0 l/m 0 min 0 min 9 W/m 19,3 km/h (3 Bft) 95,74 %
04.12.2020 08:54 5,6 C 5,0 C 5,6 C 91 % 983,9 hPa 0,0 l/m 0 min 0 min 10 W/m 22,5 km/h (4 Bft) 97,87 %
04.12.2020 08:56 5,6 C 5,6 C 5,6 C 91 % 984,1 hPa 0,0 l/m 0 min 0 min 9 W/m 25,7 km/h (4 Bft) 97,87 %
04.12.2020 08:58 5,6 C 5,6 C 5,6 C 91 % 984,1 hPa 0,0 l/m 0 min 0 min 10 W/m 25,7 km/h (4 Bft) 97,83 %
04.12.2020 09:00 5,6 C 5,6 C 5,6 C 91 % 984,0 hPa 0,0 l/m 0 min 0 min 13 W/m 25,7 km/h (4 Bft) 97,87 %
04.12.2020 09:02 5,7 C 5,6 C 5,6 C 91 % 984,2 hPa 0,0 l/m 0 min 0 min 18 W/m 25,7 km/h (4 Bft) 95,74 %
04.12.2020 09:04 5,7 C 5,6 C 6,1 C 91 % 984,1 hPa 0,0 l/m 0 min 0 min 19 W/m 19,3 km/h (3 Bft) 97,87 %
04.12.2020 09:06 5,7 C 5,6 C 5,6 C 91 % 983,9 hPa 0,0 l/m 0 min 0 min 21 W/m 19,3 km/h (3 Bft) 97,87 %
04.12.2020 09:08 5,7 C 5,6 C 6,1 C 91 % 984,0 hPa 0,0 l/m 0 min 0 min 21 W/m 16,1 km/h (3 Bft) 93,62 %
04.12.2020 09:10 5,8 C 5,6 C 6,1 C 91 % 984,0 hPa 0,0 l/m 0 min 0 min 23 W/m 25,7 km/h (4 Bft) 95,74 %
04.12.2020 09:12 5,8 C 5,6 C 6,1 C 91 % 984,0 hPa 0,0 l/m 0 min 0 min 24 W/m 25,7 km/h (4 Bft) 93,48 %
04.12.2020 09:14 5,8 C 5,6 C 6,1 C 91 % 984,0 hPa 0,0 l/m 0 min 0 min 23 W/m 19,3 km/h (3 Bft) 89,36 %
04.12.2020 09:16 5,8 C 5,6 C 6,1 C 91 % 984,1 hPa 0,0 l/m 0 min 0 min 23 W/m 16,1 km/h (3 Bft) 91,49 %
04.12.2020 09:18 5,8 C 5,6 C 6,1 C 91 % 984,1 hPa 0,0 l/m 0 min 0 min 20 W/m 16,1 km/h (3 Bft) 95,74 %
04.12.2020 09:20 5,8 C 5,6 C 6,1 C 91 % 984,1 hPa 0,0 l/m 0 min 0 min 19 W/m 19,3 km/h (3 Bft) 93,62 %
04.12.2020 09:22 5,8 C 5,6 C 6,1 C 91 % 984,1 hPa 0,0 l/m 0 min 0 min 19 W/m 19,3 km/h (3 Bft) 93,48 %
04.12.2020 09:24 5,8 C 5,6 C 6,1 C 91 % 984,2 hPa 0,0 l/m 0 min 0 min 20 W/m 29,0 km/h (5 Bft) 91,49 %
04.12.2020 09:26 5,9 C 5,6 C 6,1 C 92 % 984,1 hPa 0,0 l/m 0 min 0 min 20 W/m 22,5 km/h (4 Bft) 91,49 %
04.12.2020 09:28 5,9 C 5,6 C 6,1 C 92 % 984,2 hPa 0,0 l/m 0 min 0 min 19 W/m 32,2 km/h (5 Bft) 93,62 %
04.12.2020 09:30 5,9 C 5,6 C 6,1 C 92 % 984,1 hPa 0,0 l/m 0 min 0 min 23 W/m 22,5 km/h (4 Bft) 93,62 %
04.12.2020 09:32 5,9 C 5,6 C 6,1 C 91 % 984,2 hPa 0,0 l/m 0 min 0 min 24 W/m 22,5 km/h (4 Bft) 90,57 %
04.12.2020 09:34 5,9 C 5,6 C 6,1 C 91 % 984,2 hPa 0,0 l/m 0 min 0 min 25 W/m 19,3 km/h (3 Bft) 93,75 %
04.12.2020 09:36 6,0 C 5,6 C 6,1 C 91 % 984,2 hPa 0,0 l/m 0 min 0 min 25 W/m 25,7 km/h (4 Bft) 91,49 %
04.12.2020 09:38 6,0 C 5,6 C 6,1 C 91 % 984,2 hPa 0,0 l/m 0 min 0 min 28 W/m 19,3 km/h (3 Bft) 93,75 %
04.12.2020 09:40 6,0 C 5,6 C 6,1 C 91 % 984,2 hPa 0,0 l/m 0 min 0 min 27 W/m 25,7 km/h (4 Bft) 91,67 %
04.12.2020 09:42 6,0 C 5,6 C 6,1 C 91 % 984,2 hPa 0,0 l/m 0 min 0 min 25 W/m 22,5 km/h (4 Bft) 93,75 %
04.12.2020 09:44 6,0 C 6,1 C 6,1 C 91 % 984,2 hPa 0,0 l/m 0 min 0 min 23 W/m 19,3 km/h (3 Bft) 95,74 %
04.12.2020 09:46 6,1 C 5,6 C 6,1 C 91 % 984,1 hPa 0,0 l/m 0 min 0 min 20 W/m 25,7 km/h (4 Bft) 91,49 %
04.12.2020 09:48 6,1 C 6,1 C 6,1 C 91 % 984,2 hPa 0,0 l/m 0 min 0 min 19 W/m 19,3 km/h (3 Bft) 91,43 %
04.12.2020 09:50 6,1 C 6,1 C 6,1 C 91 % 984,2 hPa 0,0 l/m 0 min 0 min 21 W/m 22,5 km/h (4 Bft) 93,62 %
04.12.2020 09:52 6,1 C 6,1 C 6,7 C 91 % 984,2 hPa 0,0 l/m 0 min 0 min 24 W/m 25,7 km/h (4 Bft) 93,62 %
04.12.2020 09:54 6,1 C 6,1 C 6,7 C 91 % 984,3 hPa 0,0 l/m 0 min 0 min 23 W/m 19,3 km/h (3 Bft) 95,74 %
04.12.2020 09:56 6,2 C 6,1 C 6,7 C 91 % 984,3 hPa 0,0 l/m 0 min 0 min 25 W/m 22,5 km/h (4 Bft) 97,83 %
04.12.2020 09:58 6,2 C 6,1 C 6,7 C 91 % 984,2 hPa 0,0 l/m 0 min 0 min 25 W/m 22,5 km/h (4 Bft) 97,87 %
04.12.2020 10:00 6,3 C 6,1 C 6,7 C 91 % 984,2 hPa 0,0 l/m 0 min 0 min 25 W/m 22,5 km/h (4 Bft) 100,00 %
04.12.2020 10:02 6,3 C 6,1 C 6,7 C 91 % 984,3 hPa 0,0 l/m 0 min 0 min 26 W/m 16,1 km/h (3 Bft) 96,23 %
04.12.2020 10:04 6,3 C 6,1 C 6,7 C 91 % 984,3 hPa 0,0 l/m 0 min 0 min 22 W/m 19,3 km/h (3 Bft) 97,87 %
04.12.2020 10:06 6,3 C 6,1 C 6,7 C 91 % 984,4 hPa 0,0 l/m 0 min 0 min 21 W/m 16,1 km/h (3 Bft) 97,87 %
04.12.2020 10:08 6,4 C 6,1 C 6,7 C 91 % 984,3 hPa 0,0 l/m 0 min 0 min 21 W/m 16,1 km/h (3 Bft) 95,74 %
04.12.2020 10:10 6,4 C 6,1 C 6,7 C 91 % 984,3 hPa 0,0 l/m 0 min 0 min 22 W/m 16,1 km/h (3 Bft) 95,74 %
04.12.2020 10:12 6,4 C 6,1 C 6,7 C 91 % 984,4 hPa 0,0 l/m 0 min 0 min 21 W/m 19,3 km/h (3 Bft) 97,83 %
04.12.2020 10:14 6,4 C 6,1 C 6,7 C 91 % 984,4 hPa 0,0 l/m 0 min 0 min 21 W/m 19,3 km/h (3 Bft) 97,87 %
04.12.2020 10:16 6,4 C 6,1 C 6,7 C 91 % 984,4 hPa 0,0 l/m 0 min 0 min 24 W/m 16,1 km/h (3 Bft) 97,87 %
04.12.2020 10:18 6,4 C 6,1 C 6,7 C 91 % 984,4 hPa 0,0 l/m 0 min 0 min 40 W/m 22,5 km/h (4 Bft) 100,00 %
04.12.2020 10:20 6,4 C 6,1 C 6,7 C 91 % 984,4 hPa 0,0 l/m 0 min 0 min 53 W/m 16,1 km/h (3 Bft) 97,87 %
04.12.2020 10:22 6,4 C 6,1 C 6,7 C 91 % 984,5 hPa 0,0 l/m 0 min 0 min 50 W/m 25,7 km/h (4 Bft) 100,00 %
04.12.2020 10:24 6,4 C 6,1 C 6,7 C 91 % 984,5 hPa 0,0 l/m 0 min 0 min 47 W/m 16,1 km/h (3 Bft) 100,00 %
04.12.2020 10:26 6,4 C 6,1 C 6,7 C 91 % 984,6 hPa 0,0 l/m 0 min 0 min 49 W/m 19,3 km/h (3 Bft) 100,00 %
04.12.2020 10:28 6,4 C 6,7 C 6,7 C 91 % 984,6 hPa 0,0 l/m 0 min 0 min 54 W/m 22,5 km/h (4 Bft) 100,00 %
04.12.2020 10:30 6,5 C 6,7 C 6,7 C 91 % 984,7 hPa 0,0 l/m 0 min 0 min 57 W/m 16,1 km/h (3 Bft) 97,87 %
04.12.2020 10:32 6,5 C 6,7 C 7,2 C 91 % 984,7 hPa 0,0 l/m 0 min 0 min 68 W/m 16,1 km/h (3 Bft) 100,00 %
04.12.2020 10:34 6,5 C 6,7 C 7,2 C 91 % 984,7 hPa 0,0 l/m 0 min 0 min 81 W/m 16,1 km/h (3 Bft) 100,00 %
04.12.2020 10:36 6,5 C 7,2 C 7,2 C 91 % 984,8 hPa 0,0 l/m 0 min 0 min 100 W/m 12,9 km/h (3 Bft) 100,00 %
04.12.2020 10:38 6,6 C 7,2 C 7,8 C 91 % 984,8 hPa 0,0 l/m 0 min 0 min 114 W/m 19,3 km/h (3 Bft) 97,87 %
04.12.2020 10:40 6,7 C 7,2 C 7,8 C 91 % 985,0 hPa 0,0 l/m 0 min 0 min 117 W/m 16,1 km/h (3 Bft) 98,00 %
04.12.2020 10:42 6,8 C 7,2 C 7,8 C 91 % 984,9 hPa 0,0 l/m 0 min 0 min 106 W/m 19,3 km/h (3 Bft) 100,00 %
04.12.2020 10:44 6,9 C 7,8 C 7,8 C 91 % 984,9 hPa 0,0 l/m 0 min 0 min 107 W/m 19,3 km/h (3 Bft) 100,00 %
04.12.2020 10:46 6,9 C 7,8 C 7,8 C 90 % 985,0 hPa 0,0 l/m 0 min 0 min 126 W/m 19,3 km/h (3 Bft) 100,00 %
04.12.2020 10:48 7,0 C 7,8 C 8,4 C 90 % 985,0 hPa 0,0 l/m 0 min 0 min 128 W/m 22,5 km/h (4 Bft) 100,00 %
04.12.2020 10:50 7,1 C 7,8 C 8,4 C 90 % 985,0 hPa 0,0 l/m 0 min 0 min 117 W/m 19,3 km/h (3 Bft) 97,87 %
04.12.2020 10:52 7,1 C 7,8 C 8,4 C 90 % 985,1 hPa 0,0 l/m 0 min 0 min 106 W/m 16,1 km/h (3 Bft) 100,00 %
04.12.2020 10:54 7,2 C 7,8 C 8,4 C 90 % 985,1 hPa 0,0 l/m 0 min 0 min 98 W/m 22,5 km/h (4 Bft) 100,00 %
04.12.2020 10:56 7,3 C 7,8 C 8,4 C 90 % 985,1 hPa 0,0 l/m 0 min 0 min 101 W/m 12,9 km/h (3 Bft) 100,00 %
04.12.2020 10:58 7,3 C 7,8 C 8,4 C 89 % 985,1 hPa 0,0 l/m 0 min 0 min 98 W/m 25,7 km/h (4 Bft) 100,00 %
04.12.2020 11:00 7,4 C 7,8 C 8,4 C 89 % 985,3 hPa 0,0 l/m 0 min 0 min 89 W/m 19,3 km/h (3 Bft) 100,00 %
04.12.2020 11:02 7,4 C 7,8 C 8,4 C 89 % 985,3 hPa 0,0 l/m 0 min 0 min 70 W/m 22,5 km/h (4 Bft) 100,00 %
04.12.2020 11:04 7,4 C 7,2 C 7,8 C 89 % 985,3 hPa 0,0 l/m 0 min 0 min 53 W/m 22,5 km/h (4 Bft) 100,00 %
04.12.2020 11:06 7,5 C 7,2 C 7,8 C 89 % 985,3 hPa 0,0 l/m 0 min 0 min 39 W/m 22,5 km/h (4 Bft) 97,92 %
04.12.2020 11:08 7,5 C 7,2 C 7,8 C 89 % 985,4 hPa 0,0 l/m 0 min 0 min 39 W/m 19,3 km/h (3 Bft) 100,00 %
04.12.2020 11:10 7,5 C 7,2 C 7,8 C 88 % 985,4 hPa 0,0 l/m 0 min 0 min 56 W/m 25,7 km/h (4 Bft) 100,00 %
04.12.2020 11:12 7,5 C 8,3 C 7,8 C 88 % 985,3 hPa 0,0 l/m 0 min 0 min 117 W/m 19,3 km/h (3 Bft) 100,00 %
04.12.2020 11:14 7,5 C 10,0 C 7,8 C 88 % 985,3 hPa 0,0 l/m 2 min 0 min 274 W/m 22,5 km/h (4 Bft) 100,00 %
04.12.2020 11:16 7,5 C 11,1 C 7,8 C 88 % 985,1 hPa 0,0 l/m 2 min 0 min 271 W/m 19,3 km/h (3 Bft) 100,00 %
04.12.2020 11:18 7,5 C 11,1 C 7,8 C 88 % 985,2 hPa 0,0 l/m 2 min 0 min 254 W/m 22,5 km/h (4 Bft) 100,00 %
04.12.2020 11:20 7,5 C 10,6 C 7,8 C 88 % 985,2 hPa 0,0 l/m 2 min 0 min 179 W/m 19,3 km/h (3 Bft) 100,00 %
04.12.2020 11:22 7,6 C 10,6 C 7,8 C 88 % 985,3 hPa 0,0 l/m 2 min 0 min 186 W/m 29,0 km/h (5 Bft) 100,00 %
04.12.2020 11:24 7,6 C 9,4 C 7,8 C 88 % 985,3 hPa 0,0 l/m 0 min 0 min 69 W/m 19,3 km/h (3 Bft) 100,00 %
04.12.2020 11:26 7,6 C 8,3 C 7,8 C 88 % 985,2 hPa 0,0 l/m 0 min 0 min 80 W/m 16,1 km/h (3 Bft) 100,00 %
04.12.2020 11:28 7,6 C 7,8 C 7,8 C 88 % 985,2 hPa 0,0 l/m 0 min 0 min 62 W/m 16,1 km/h (3 Bft) 100,00 %
04.12.2020 11:30 7,6 C 7,8 C 7,8 C 88 % 985,2 hPa 0,0 l/m 0 min 0 min 81 W/m 19,3 km/h (3 Bft) 100,00 %
04.12.2020 11:32 7,6 C 8,3 C 7,8 C 88 % 985,2 hPa 0,0 l/m 0 min 0 min 133 W/m 22,5 km/h (4 Bft) 100,00 %
04.12.2020 11:34 7,6 C 7,8 C 7,8 C 88 % 985,2 hPa 0,0 l/m 0 min 0 min 136 W/m 22,5 km/h (4 Bft) 100,00 %
04.12.2020 11:36 7,6 C 7,8 C 7,8 C 88 % 985,3 hPa 0,0 l/m 0 min 0 min 101 W/m 19,3 km/h (3 Bft) 100,00 %
04.12.2020 11:38 7,6 C 7,8 C 7,8 C 88 % 985,3 hPa 0,0 l/m 0 min 0 min 83 W/m 19,3 km/h (3 Bft) 97,87 %
04.12.2020 11:40 7,6 C 7,8 C 7,8 C 88 % 985,4 hPa 0,0 l/m 0 min 0 min 82 W/m 19,3 km/h (3 Bft) 97,87 %
04.12.2020 11:42 7,6 C 7,2 C 7,8 C 88 % 985,3 hPa 0,0 l/m 0 min 0 min 78 W/m 19,3 km/h (3 Bft) 96,23 %
04.12.2020 11:44 7,6 C 7,2 C 7,8 C 88 % 985,4 hPa 0,0 l/m 0 min 0 min 49 W/m 12,9 km/h (3 Bft) 97,83 %
04.12.2020 11:46 7,6 C 7,2 C 7,8 C 88 % 985,4 hPa 0,0 l/m 0 min 0 min 52 W/m 19,3 km/h (3 Bft) 97,87 %
04.12.2020 11:48 7,6 C 7,8 C 8,4 C 88 % 985,4 hPa 0,0 l/m 0 min 0 min 89 W/m 16,1 km/h (3 Bft) 95,74 %
04.12.2020 11:50 7,6 C 7,8 C 7,8 C 88 % 985,3 hPa 0,0 l/m 0 min 0 min 86 W/m 29,0 km/h (5 Bft) 97,87 %
04.12.2020 11:52 7,6 C 9,4 C 9,5 C 88 % 985,4 hPa 0,0 l/m 0 min 0 min 110 W/m 25,7 km/h (4 Bft) 97,87 %
04.12.2020 11:54 7,7 C 9,4 C 10,0 C 88 % 985,4 hPa 0,0 l/m 0 min 0 min 113 W/m 16,1 km/h (3 Bft) 97,87 %
04.12.2020 11:56 7,8 C 9,4 C 9,5 C 88 % 985,4 hPa 0,0 l/m 0 min 0 min 127 W/m 19,3 km/h (3 Bft) 95,65 %
04.12.2020 11:58 7,8 C 9,4 C 10,0 C 87 % 985,4 hPa 0,0 l/m 2 min 0 min 159 W/m 16,1 km/h (3 Bft) 93,62 %
04.12.2020 12:00 7,8 C 8,9 C 9,5 C 87 % 985,4 hPa 0,0 l/m 0 min 0 min 78 W/m 16,1 km/h (3 Bft) 97,87 %
04.12.2020 12:02 7,9 C 8,3 C 8,9 C 87 % 985,3 hPa 0,0 l/m 0 min 0 min 78 W/m 16,1 km/h (3 Bft) 97,87 %
04.12.2020 12:04 7,9 C 8,9 C 9,5 C 87 % 985,4 hPa 0,0 l/m 0 min 0 min 154 W/m 19,3 km/h (3 Bft) 97,87 %
04.12.2020 12:08 7,9 C 8,9 C 8,9 C 87 % 985,4 hPa 0,0 l/m 0 min 0 min 115 W/m 22,5 km/h (4 Bft) 93,62 %
04.12.2020 12:10 7,9 C 8,3 C 8,9 C 87 % 985,4 hPa 0,0 l/m 0 min 0 min 68 W/m 29,0 km/h (5 Bft) 95,74 %
04.12.2020 12:12 7,9 C 8,3 C 8,9 C 86 % 985,3 hPa 0,0 l/m 0 min 0 min 95 W/m 29,0 km/h (5 Bft) 95,74 %
04.12.2020 12:14 7,9 C 8,9 C 8,9 C 86 % 985,4 hPa 0,0 l/m 0 min 0 min 125 W/m 29,0 km/h (5 Bft) 95,74 %
04.12.2020 12:16 7,9 C 10,0 C 10,0 C 86 % 985,3 hPa 0,0 l/m 2 min 0 min 229 W/m 19,3 km/h (3 Bft) 97,87 %
04.12.2020 12:18 8,0 C 10,0 C 10,6 C 86 % 985,4 hPa 0,0 l/m 2 min 0 min 313 W/m 19,3 km/h (3 Bft) 97,83 %
04.12.2020 12:20 8,0 C 8,9 C 9,5 C 86 % 985,4 hPa 0,0 l/m 0 min 0 min 116 W/m 22,5 km/h (4 Bft) 97,87 %
04.12.2020 12:22 8,0 C 8,3 C 8,9 C 86 % 985,4 hPa 0,0 l/m 0 min 0 min 52 W/m 25,7 km/h (4 Bft) 95,74 %
04.12.2020 12:24 8,0 C 7,8 C 8,4 C 86 % 985,4 hPa 0,0 l/m 0 min 0 min 34 W/m 19,3 km/h (3 Bft) 97,87 %
04.12.2020 12:26 8,0 C 7,8 C 8,4 C 86 % 985,5 hPa 0,0 l/m 0 min 0 min 33 W/m 25,7 km/h (4 Bft) 97,87 %
04.12.2020 12:28 8,0 C 7,8 C 7,8 C 85 % 985,5 hPa 0,0 l/m 0 min 0 min 38 W/m 29,0 km/h (5 Bft) 95,74 %
04.12.2020 12:30 8,0 C 7,8 C 8,4 C 85 % 985,5 hPa 0,0 l/m 0 min 0 min 63 W/m 19,3 km/h (3 Bft) 97,83 %
04.12.2020 12:32 8,0 C 7,8 C 8,4 C 85 % 985,5 hPa 0,0 l/m 0 min 0 min 93 W/m 32,2 km/h (5 Bft) 97,87 %
04.12.2020 12:34 8,0 C 7,8 C 8,4 C 85 % 985,5 hPa 0,0 l/m 0 min 0 min 121 W/m 25,7 km/h (4 Bft) 95,74 %
04.12.2020 12:36 8,0 C 7,8 C 8,4 C 85 % 985,5 hPa 0,0 l/m 0 min 0 min 123 W/m 35,4 km/h (5 Bft) 95,74 %
04.12.2020 12:38 8,0 C 7,8 C 8,4 C 84 % 985,6 hPa 0,0 l/m 0 min 0 min 114 W/m 29,0 km/h (5 Bft) 97,87 %
04.12.2020 12:40 8,0 C 7,8 C 8,4 C 84 % 985,5 hPa 0,0 l/m 0 min 0 min 110 W/m 29,0 km/h (5 Bft) 97,87 %
04.12.2020 12:42 8,0 C 8,3 C 8,4 C 84 % 985,5 hPa 0,0 l/m 0 min 0 min 110 W/m 22,5 km/h (4 Bft) 97,83 %
04.12.2020 12:44 8,0 C 8,3 C 8,9 C 84 % 985,5 hPa 0,0 l/m 0 min 0 min 144 W/m 19,3 km/h (3 Bft) 97,87 %
04.12.2020 12:46 8,0 C 8,9 C 9,5 C 84 % 985,6 hPa 0,0 l/m 2 min 0 min 204 W/m 19,3 km/h (3 Bft) 97,87 %
04.12.2020 12:48 8,1 C 8,9 C 8,9 C 84 % 985,6 hPa 0,0 l/m 0 min 0 min 143 W/m 29,0 km/h (5 Bft) 97,87 %
04.12.2020 12:50 8,1 C 10,0 C 10,0 C 83 % 985,6 hPa 0,0 l/m 0 min 0 min 141 W/m 29,0 km/h (5 Bft) 97,87 %
04.12.2020 12:52 8,1 C 10,6 C 11,1 C 83 % 985,6 hPa 0,0 l/m 2 min 0 min 277 W/m 22,5 km/h (4 Bft) 93,62 %
04.12.2020 12:54 8,3 C 10,0 C 10,6 C 83 % 985,6 hPa 0,0 l/m 2 min 0 min 254 W/m 32,2 km/h (5 Bft) 95,65 %
04.12.2020 12:56 8,3 C 9,4 C 10,6 C 81 % 985,5 hPa 0,0 l/m 2 min 0 min 185 W/m 22,5 km/h (4 Bft) 97,87 %
04.12.2020 12:58 8,4 C 9,4 C 10,0 C 81 % 985,5 hPa 0,0 l/m 0 min 0 min 120 W/m 12,9 km/h (3 Bft) 97,87 %
04.12.2020 13:00 8,4 C 8,9 C 9,5 C 81 % 985,7 hPa 0,0 l/m 0 min 0 min 88 W/m 19,3 km/h (3 Bft) 97,87 %
04.12.2020 13:02 8,4 C 8,3 C 8,9 C 80 % 985,7 hPa 0,0 l/m 0 min 0 min 72 W/m 32,2 km/h (5 Bft) 95,83 %
04.12.2020 13:04 8,4 C 8,3 C 8,4 C 80 % 985,7 hPa 0,0 l/m 0 min 0 min 55 W/m 16,1 km/h (3 Bft) 100,00 %
04.12.2020 13:06 8,4 C 8,3 C 8,4 C 80 % 985,6 hPa 0,0 l/m 0 min 0 min 58 W/m 12,9 km/h (3 Bft) 97,83 %
04.12.2020 13:08 8,4 C 8,3 C 8,4 C 80 % 985,7 hPa 0,0 l/m 0 min 0 min 75 W/m 19,3 km/h (3 Bft) 100,00 %
04.12.2020 13:10 8,4 C 8,3 C 8,4 C 80 % 985,7 hPa 0,0 l/m 0 min 0 min 95 W/m 16,1 km/h (3 Bft) 100,00 %
04.12.2020 13:12 8,4 C 8,3 C 8,4 C 80 % 985,8 hPa 0,0 l/m 0 min 0 min 108 W/m 19,3 km/h (3 Bft) 97,87 %
04.12.2020 13:14 8,4 C 8,3 C 8,4 C 80 % 985,7 hPa 0,0 l/m 0 min 0 min 105 W/m 22,5 km/h (4 Bft) 47,37 %
04.12.2020 13:16 8,4 C 8,3 C 8,4 C 80 % 985,8 hPa 0,0 l/m 0 min 0 min 114 W/m 16,1 km/h (3 Bft) 100,00 %
04.12.2020 13:18 8,4 C 8,3 C 8,4 C 80 % 985,8 hPa 0,0 l/m 0 min 0 min 123 W/m 19,3 km/h (3 Bft) 97,87 %
04.12.2020 13:20 8,4 C 8,3 C 8,4 C 80 % 985,8 hPa 0,0 l/m 0 min 0 min 125 W/m 19,3 km/h (3 Bft) 97,87 %
04.12.2020 13:22 8,4 C 8,3 C 8,4 C 80 % 985,8 hPa 0,0 l/m 0 min 0 min 130 W/m 16,1 km/h (3 Bft) 95,74 %
04.12.2020 13:24 8,4 C 8,3 C 8,4 C 80 % 985,9 hPa 0,0 l/m 0 min 0 min 117 W/m 16,1 km/h (3 Bft) 97,87 %
04.12.2020 13:26 8,4 C 8,3 C 8,4 C 80 % 985,8 hPa 0,0 l/m 0 min 0 min 103 W/m 12,9 km/h (3 Bft) 97,87 %
04.12.2020 13:28 8,4 C 8,3 C 8,4 C 80 % 985,9 hPa 0,0 l/m 0 min 0 min 83 W/m 16,1 km/h (3 Bft) 97,83 %
04.12.2020 13:30 8,4 C 8,3 C 8,4 C 80 % 985,8 hPa 0,0 l/m 0 min 0 min 90 W/m 19,3 km/h (3 Bft) 97,87 %
04.12.2020 13:32 8,4 C 8,3 C 8,4 C 80 % 985,8 hPa 0,0 l/m 0 min 0 min 97 W/m 22,5 km/h (4 Bft) 97,87 %
04.12.2020 13:34 8,4 C 8,3 C 8,4 C 80 % 985,8 hPa 0,0 l/m 0 min 0 min 96 W/m 16,1 km/h (3 Bft) 97,87 %
04.12.2020 13:36 8,4 C 8,3 C 8,4 C 80 % 985,8 hPa 0,0 l/m 0 min 0 min 94 W/m 16,1 km/h (3 Bft) 97,87 %
04.12.2020 13:38 8,4 C 8,3 C 8,4 C 80 % 985,8 hPa 0,0 l/m 0 min 0 min 68 W/m 12,9 km/h (3 Bft) 95,65 %
04.12.2020 13:40 8,3 C 7,8 C 7,8 C 80 % 985,8 hPa 0,0 l/m 0 min 0 min 51 W/m 25,7 km/h (4 Bft) 97,87 %
04.12.2020 13:42 8,3 C 7,8 C 7,8 C 80 % 985,9 hPa 0,0 l/m 0 min 0 min 48 W/m 16,1 km/h (3 Bft) 97,87 %
04.12.2020 13:44 8,3 C 7,8 C 7,8 C 80 % 985,9 hPa 0,0 l/m 0 min 0 min 50 W/m 19,3 km/h (3 Bft) 95,74 %
04.12.2020 13:46 8,3 C 7,8 C 7,8 C 80 % 985,9 hPa 0,0 l/m 0 min 0 min 53 W/m 35,4 km/h (5 Bft) 97,87 %
04.12.2020 13:48 8,3 C 7,8 C 7,8 C 79 % 985,9 hPa 0,0 l/m 0 min 0 min 53 W/m 22,5 km/h (4 Bft) 97,87 %
04.12.2020 13:50 8,3 C 7,8 C 7,8 C 79 % 985,9 hPa 0,0 l/m 0 min 0 min 53 W/m 22,5 km/h (4 Bft) 97,87 %
04.12.2020 13:52 8,3 C 7,8 C 7,8 C 79 % 985,9 hPa 0,0 l/m 0 min 0 min 54 W/m 19,3 km/h (3 Bft) 97,83 %
04.12.2020 13:54 8,3 C 7,8 C 7,8 C 79 % 985,9 hPa 0,0 l/m 0 min 0 min 61 W/m 22,5 km/h (4 Bft) 97,87 %
04.12.2020 13:56 8,3 C 7,8 C 7,8 C 79 % 985,9 hPa 0,0 l/m 0 min 0 min 74 W/m 16,1 km/h (3 Bft) 97,87 %
04.12.2020 13:58 8,3 C 8,3 C 7,8 C 79 % 986,0 hPa 0,0 l/m 0 min 0 min 88 W/m 16,1 km/h (3 Bft) 97,87 %
04.12.2020 14:00 8,3 C 8,3 C 8,4 C 79 % 986,0 hPa 0,0 l/m 0 min 0 min 102 W/m 16,1 km/h (3 Bft) 95,74 %
04.12.2020 14:02 8,3 C 8,3 C 7,8 C 80 % 986,0 hPa 0,0 l/m 0 min 0 min 94 W/m 19,3 km/h (3 Bft) 95,74 %
04.12.2020 14:04 8,3 C 8,3 C 7,8 C 80 % 986,1 hPa 0,0 l/m 0 min 0 min 88 W/m 22,5 km/h (4 Bft) 95,74 %
04.12.2020 14:06 8,3 C 8,3 C 8,4 C 80 % 986,1 hPa 0,0 l/m 0 min 0 min 101 W/m 19,3 km/h (3 Bft) 91,49 %
04.12.2020 14:08 8,3 C 8,9 C 8,4 C 80 % 986,1 hPa 0,0 l/m 2 min 0 min 137 W/m 25,7 km/h (4 Bft) 95,65 %
04.12.2020 14:10 8,3 C 9,4 C 9,5 C 80 % 986,0 hPa 0,0 l/m 2 min 0 min 178 W/m 16,1 km/h (3 Bft) 95,74 %
04.12.2020 14:12 8,3 C 10,0 C 10,0 C 80 % 986,0 hPa 0,0 l/m 2 min 0 min 216 W/m 22,5 km/h (4 Bft) 95,74 %
04.12.2020 14:14 8,3 C 10,0 C 10,0 C 80 % 986,0 hPa 0,0 l/m 2 min 0 min 202 W/m 22,5 km/h (4 Bft) 95,74 %
04.12.2020 14:16 8,4 C 9,4 C 9,5 C 80 % 986,0 hPa 0,0 l/m 2 min 0 min 155 W/m 22,5 km/h (4 Bft) 91,49 %
04.12.2020 14:18 8,4 C 9,4 C 9,5 C 80 % 986,0 hPa 0,0 l/m 2 min 0 min 126 W/m 19,3 km/h (3 Bft) 95,74 %
04.12.2020 14:20 8,4 C 8,9 C 8,9 C 80 % 986,0 hPa 0,0 l/m 0 min 0 min 99 W/m 25,7 km/h (4 Bft) 97,83 %
04.12.2020 14:22 8,4 C 8,9 C 8,9 C 80 % 986,1 hPa 0,0 l/m 0 min 0 min 99 W/m 22,5 km/h (4 Bft) 97,87 %
04.12.2020 14:24 8,4 C 8,3 C 8,4 C 79 % 986,1 hPa 0,0 l/m 0 min 0 min 94 W/m 32,2 km/h (5 Bft) 95,74 %
04.12.2020 14:26 8,4 C 8,3 C 8,4 C 79 % 986,2 hPa 0,0 l/m 0 min 0 min 89 W/m 25,7 km/h (4 Bft) 97,87 %
04.12.2020 14:28 8,4 C 8,3 C 8,4 C 79 % 986,1 hPa 0,0 l/m 0 min 0 min 83 W/m 25,7 km/h (4 Bft) 97,87 %
04.12.2020 14:30 8,4 C 8,3 C 7,8 C 79 % 986,1 hPa 0,0 l/m 0 min 0 min 80 W/m 29,0 km/h (5 Bft) 97,87 %
04.12.2020 14:32 8,4 C 8,3 C 7,8 C 79 % 986,1 hPa 0,0 l/m 0 min 0 min 77 W/m 29,0 km/h (5 Bft) 95,65 %
04.12.2020 14:34 8,4 C 7,8 C 7,8 C 79 % 986,2 hPa 0,0 l/m 0 min 0 min 74 W/m 22,5 km/h (4 Bft) 93,62 %
04.12.2020 14:36 8,4 C 7,8 C 7,8 C 79 % 986,2 hPa 0,0 l/m 0 min 0 min 70 W/m 25,7 km/h (4 Bft) 95,74 %
04.12.2020 14:38 8,4 C 7,8 C 7,8 C 79 % 986,3 hPa 0,0 l/m 0 min 0 min 65 W/m 22,5 km/h (4 Bft) 97,87 %
04.12.2020 14:40 8,4 C 7,8 C 7,2 C 79 % 986,3 hPa 0,0 l/m 0 min 0 min 62 W/m 22,5 km/h (4 Bft) 94,29 %
04.12.2020 14:42 8,4 C 7,8 C 7,2 C 79 % 986,3 hPa 0,0 l/m 0 min 0 min 58 W/m 22,5 km/h (4 Bft) 100,00 %
04.12.2020 14:44 8,4 C 7,8 C 7,2 C 79 % 986,3 hPa 0,0 l/m 0 min 0 min 56 W/m 22,5 km/h (4 Bft) 100,00 %
04.12.2020 14:46 8,3 C 7,8 C 7,2 C 79 % 986,2 hPa 0,0 l/m 0 min 0 min 54 W/m 22,5 km/h (4 Bft) 100,00 %
04.12.2020 14:48 8,3 C 7,8 C 7,2 C 80 % 986,3 hPa 0,0 l/m 0 min 0 min 53 W/m 6,4 km/h (2 Bft) 100,00 %
04.12.2020 14:50 8,3 C 7,8 C 7,2 C 80 % 986,2 hPa 0,0 l/m 0 min 0 min 50 W/m 19,3 km/h (3 Bft) 100,00 %
04.12.2020 14:52 8,3 C 7,8 C 7,2 C 80 % 986,2 hPa 0,0 l/m 0 min 0 min 47 W/m 16,1 km/h (3 Bft) 97,87 %
04.12.2020 14:54 8,3 C 7,2 C 7,2 C 81 % 986,2 hPa 0,0 l/m 0 min 0 min 46 W/m 19,3 km/h (3 Bft) 100,00 %
04.12.2020 14:56 8,2 C 7,2 C 7,2 C 81 % 986,1 hPa 0,0 l/m 0 min 0 min 46 W/m 22,5 km/h (4 Bft) 100,00 %
04.12.2020 14:58 8,2 C 7,2 C 7,2 C 81 % 986,1 hPa 0,0 l/m 0 min 0 min 42 W/m 16,1 km/h (3 Bft) 100,00 %
04.12.2020 15:00 8,1 C 7,2 C 7,2 C 81 % 986,2 hPa 0,0 l/m 0 min 0 min 40 W/m 16,1 km/h (3 Bft) 97,87 %
04.12.2020 15:02 8,1 C 7,2 C 7,2 C 81 % 986,2 hPa 0,0 l/m 0 min 0 min 36 W/m 16,1 km/h (3 Bft) 95,74 %
04.12.2020 15:04 8,1 C 7,2 C 7,2 C 82 % 986,3 hPa 0,0 l/m 0 min 0 min 33 W/m 12,9 km/h (3 Bft) 95,74 %
04.12.2020 15:06 8,1 C 7,2 C 7,2 C 82 % 986,3 hPa 0,0 l/m 0 min 0 min 31 W/m 16,1 km/h (3 Bft) 100,00 %
04.12.2020 15:08 8,0 C 7,2 C 7,2 C 82 % 986,3 hPa 0,0 l/m 0 min 0 min 30 W/m 16,1 km/h (3 Bft) 100,00 %
04.12.2020 15:10 8,0 C 7,2 C 7,2 C 82 % 986,3 hPa 0,0 l/m 0 min 0 min 30 W/m 19,3 km/h (3 Bft) 95,92 %
04.12.2020 15:12 8,0 C 7,2 C 6,7 C 82 % 986,3 hPa 0,0 l/m 0 min 0 min 30 W/m 25,7 km/h (4 Bft) 95,74 %
04.12.2020 15:14 8,0 C 7,2 C 6,7 C 82 % 986,4 hPa 0,0 l/m 0 min 0 min 30 W/m 16,1 km/h (3 Bft) 93,62 %
04.12.2020 15:16 7,9 C 7,2 C 6,7 C 82 % 986,4 hPa 0,0 l/m 0 min 0 min 30 W/m 25,7 km/h (4 Bft) 98,11 %
04.12.2020 15:18 7,9 C 7,2 C 6,7 C 82 % 986,3 hPa 0,0 l/m 0 min 0 min 30 W/m 25,7 km/h (4 Bft) 97,22 %
04.12.2020 15:20 7,9 C 7,2 C 6,7 C 82 % 986,4 hPa 0,0 l/m 0 min 0 min 30 W/m 19,3 km/h (3 Bft) 97,96 %
04.12.2020 15:22 7,8 C 7,2 C 6,7 C 82 % 986,4 hPa 0,0 l/m 0 min 0 min 29 W/m 12,9 km/h (3 Bft) 97,87 %
04.12.2020 15:24 7,8 C 7,2 C 6,7 C 83 % 986,4 hPa 0,0 l/m 0 min 0 min 29 W/m 22,5 km/h (4 Bft) 97,92 %
04.12.2020 15:26 7,8 C 7,2 C 6,7 C 83 % 986,5 hPa 0,0 l/m 0 min 0 min 30 W/m 16,1 km/h (3 Bft) 97,92 %
04.12.2020 15:28 7,8 C 7,2 C 6,7 C 83 % 986,5 hPa 0,0 l/m 0 min 0 min 28 W/m 16,1 km/h (3 Bft) 97,87 %
04.12.2020 15:30 7,7 C 7,2 C 6,7 C 83 % 986,6 hPa 0,0 l/m 0 min 0 min 26 W/m 16,1 km/h (3 Bft) 95,65 %
04.12.2020 15:32 7,6 C 7,2 C 6,7 C 83 % 986,6 hPa 0,0 l/m 0 min 0 min 26 W/m 19,3 km/h (3 Bft) 97,87 %
04.12.2020 15:34 7,6 C 7,2 C 6,7 C 83 % 986,6 hPa 0,0 l/m 0 min 0 min 25 W/m 29,0 km/h (5 Bft) 98,11 %
04.12.2020 15:36 7,6 C 7,2 C 6,7 C 83 % 986,7 hPa 0,0 l/m 0 min 0 min 26 W/m 29,0 km/h (5 Bft) 97,30 %
04.12.2020 15:38 7,6 C 7,2 C 6,7 C 83 % 986,7 hPa 0,0 l/m 0 min 0 min 26 W/m 22,5 km/h (4 Bft) 97,87 %
04.12.2020 15:40 7,6 C 7,2 C 6,7 C 83 % 986,8 hPa 0,0 l/m 0 min 0 min 26 W/m 25,7 km/h (4 Bft) 97,92 %
04.12.2020 15:42 7,5 C 7,2 C 6,7 C 83 % 986,8 hPa 0,0 l/m 0 min 0 min 26 W/m 16,1 km/h (3 Bft) 95,83 %
04.12.2020 15:44 7,5 C 6,7 C 6,7 C 83 % 986,8 hPa 0,0 l/m 0 min 0 min 26 W/m 16,1 km/h (3 Bft) 97,92 %
04.12.2020 15:46 7,5 C 6,7 C 6,7 C 83 % 986,8 hPa 0,0 l/m 0 min 0 min 24 W/m 19,3 km/h (3 Bft) 95,74 %
04.12.2020 15:48 7,5 C 6,7 C 6,7 C 83 % 986,8 hPa 0,0 l/m 0 min 0 min 22 W/m 16,1 km/h (3 Bft) 97,87 %
04.12.2020 15:50 7,5 C 6,7 C 6,7 C 83 % 986,8 hPa 0,0 l/m 0 min 0 min 20 W/m 22,5 km/h (4 Bft) 97,87 %
04.12.2020 15:52 7,5 C 6,7 C 6,7 C 83 % 986,9 hPa 0,0 l/m 0 min 0 min 19 W/m 16,1 km/h (3 Bft) 97,83 %
04.12.2020 15:54 7,5 C 6,7 C 6,7 C 83 % 986,9 hPa 0,0 l/m 0 min 0 min 17 W/m 19,3 km/h (3 Bft) 97,87 %
04.12.2020 15:56 7,4 C 6,7 C 6,7 C 83 % 986,9 hPa 0,0 l/m 0 min 0 min 14 W/m 29,0 km/h (5 Bft) 98,15 %
04.12.2020 15:58 7,4 C 6,7 C 6,7 C 82 % 986,9 hPa 0,0 l/m 0 min 0 min 14 W/m 16,1 km/h (3 Bft) 100,00 %
04.12.2020 16:00 7,4 C 6,7 C 6,7 C 82 % 987,0 hPa 0,0 l/m 0 min 0 min 14 W/m 19,3 km/h (3 Bft) 100,00 %
04.12.2020 16:02 7,4 C 6,7 C 6,7 C 82 % 987,0 hPa 0,0 l/m 0 min 0 min 13 W/m 19,3 km/h (3 Bft) 97,96 %
04.12.2020 16:04 7,4 C 6,7 C 6,7 C 82 % 987,1 hPa 0,0 l/m 0 min 0 min 12 W/m 19,3 km/h (3 Bft) 100,00 %
04.12.2020 16:06 7,4 C 6,7 C 6,7 C 82 % 987,1 hPa 0,0 l/m 0 min 0 min 11 W/m 22,5 km/h (4 Bft) 100,00 %
04.12.2020 16:08 7,4 C 6,7 C 6,7 C 82 % 987,1 hPa 0,0 l/m 0 min 0 min 9 W/m 32,2 km/h (5 Bft) 100,00 %
04.12.2020 16:10 7,3 C 6,7 C 6,7 C 82 % 987,2 hPa 0,0 l/m 0 min 0 min 7 W/m 32,2 km/h (5 Bft) 100,00 %
04.12.2020 16:12 7,3 C 6,7 C 6,7 C 82 % 987,3 hPa 0,0 l/m 0 min 0 min 7 W/m 16,1 km/h (3 Bft) 98,11 %
04.12.2020 16:14 7,3 C 6,7 C 6,1 C 82 % 987,3 hPa 0,0 l/m 0 min 0 min 7 W/m 19,3 km/h (3 Bft) 100,00 %
04.12.2020 16:16 7,3 C 6,7 C 6,1 C 82 % 987,4 hPa 0,0 l/m 0 min 0 min 6 W/m 22,5 km/h (4 Bft) 100,00 %
04.12.2020 16:18 7,3 C 6,7 C 6,1 C 82 % 987,4 hPa 0,0 l/m 0 min 0 min 5 W/m 29,0 km/h (5 Bft) 100,00 %
04.12.2020 16:20 7,3 C 6,7 C 6,1 C 82 % 987,4 hPa 0,0 l/m 0 min 0 min 5 W/m 19,3 km/h (3 Bft) 100,00 %
04.12.2020 16:22 7,3 C 6,7 C 6,1 C 82 % 987,5 hPa 0,0 l/m 0 min 0 min 5 W/m 22,5 km/h (4 Bft) 100,00 %
04.12.2020 16:24 7,3 C 6,7 C 6,1 C 82 % 987,5 hPa 0,0 l/m 0 min 0 min 5 W/m 29,0 km/h (5 Bft) 100,00 %
04.12.2020 16:26 7,3 C 6,7 C 6,1 C 82 % 987,5 hPa 0,0 l/m 0 min 0 min 7 W/m 19,3 km/h (3 Bft) 97,87 %
04.12.2020 16:28 7,3 C 6,7 C 6,1 C 82 % 987,6 hPa 0,0 l/m 0 min 0 min 8 W/m 25,7 km/h (4 Bft) 100,00 %
04.12.2020 16:30 7,3 C 6,7 C 6,1 C 82 % 987,6 hPa 0,0 l/m 0 min 0 min 11 W/m 29,0 km/h (5 Bft) 100,00 %
04.12.2020 16:32 7,3 C 6,7 C 6,1 C 82 % 987,6 hPa 0,0 l/m 0 min 0 min 11 W/m 19,3 km/h (3 Bft) 100,00 %
04.12.2020 16:34 7,3 C 6,7 C 6,1 C 82 % 987,6 hPa 0,0 l/m 0 min 0 min 9 W/m 25,7 km/h (4 Bft) 100,00 %
04.12.2020 16:36 7,3 C 6,7 C 6,1 C 82 % 987,6 hPa 0,0 l/m 0 min 0 min 7 W/m 25,7 km/h (4 Bft) 100,00 %
04.12.2020 16:38 7,3 C 6,7 C 6,1 C 82 % 987,7 hPa 0,0 l/m 0 min 0 min 5 W/m 29,0 km/h (5 Bft) 100,00 %
04.12.2020 16:40 7,2 C 6,7 C 6,1 C 82 % 987,7 hPa 0,0 l/m 0 min 0 min 2 W/m 22,5 km/h (4 Bft) 97,87 %
04.12.2020 16:42 7,2 C 6,7 C 6,1 C 82 % 987,6 hPa 0,0 l/m 0 min 0 min 0 W/m 19,3 km/h (3 Bft) 97,87 %
04.12.2020 16:44 7,2 C 6,7 C 6,1 C 82 % 987,8 hPa 0,0 l/m 0 min 0 min 0 W/m 16,1 km/h (3 Bft) 97,87 %
04.12.2020 16:46 7,2 C 6,7 C 6,1 C 82 % 987,8 hPa 0,0 l/m 0 min 0 min 0 W/m 22,5 km/h (4 Bft) 97,87 %
04.12.2020 16:48 7,2 C 6,7 C 6,1 C 82 % 987,8 hPa 0,0 l/m 0 min 0 min 0 W/m 19,3 km/h (3 Bft) 97,87 %
04.12.2020 16:50 7,2 C 6,7 C 6,1 C 82 % 987,8 hPa 0,0 l/m 0 min 0 min 0 W/m 22,5 km/h (4 Bft) 96,23 %
04.12.2020 16:52 7,1 C 6,7 C 6,1 C 82 % 987,8 hPa 0,0 l/m 0 min 0 min 0 W/m 22,5 km/h (4 Bft) 100,00 %
04.12.2020 16:54 7,1 C 6,7 C 6,1 C 82 % 987,8 hPa 0,0 l/m 0 min 0 min 0 W/m 29,0 km/h (5 Bft) 95,92 %
04.12.2020 16:56 7,1 C 6,1 C 6,1 C 82 % 987,8 hPa 0,0 l/m 0 min 0 min 0 W/m 19,3 km/h (3 Bft) 97,96 %
04.12.2020 16:58 7,1 C 6,1 C 6,1 C 82 % 987,9 hPa 0,0 l/m 0 min 0 min 0 W/m 12,9 km/h (3 Bft) 97,87 %
04.12.2020 17:00 7,1 C 6,7 C 6,1 C 82 % 988,0 hPa 0,0 l/m 0 min 0 min 0 W/m 35,4 km/h (5 Bft) 97,87 %
04.12.2020 17:02 7,1 C 6,1 C 6,1 C 82 % 988,0 hPa 0,0 l/m 0 min 0 min 0 W/m 16,1 km/h (3 Bft) 97,83 %
04.12.2020 17:04 7,1 C 6,1 C 6,1 C 82 % 987,9 hPa 0,0 l/m 0 min 0 min 0 W/m 22,5 km/h (4 Bft) 97,87 %
04.12.2020 17:06 7,0 C 6,1 C 6,1 C 83 % 987,9 hPa 0,0 l/m 0 min 0 min 0 W/m 25,7 km/h (4 Bft) 95,35 %
04.12.2020 17:08 7,0 C 6,1 C 6,1 C 83 % 988,0 hPa 0,0 l/m 0 min 0 min 0 W/m 19,3 km/h (3 Bft) 97,92 %
04.12.2020 17:10 7,0 C 6,1 C 6,1 C 83 % 988,0 hPa 0,0 l/m 0 min 0 min 0 W/m 25,7 km/h (4 Bft) 97,87 %
04.12.2020 17:12 7,0 C 6,1 C 6,1 C 83 % 988,1 hPa 0,0 l/m 0 min 0 min 0 W/m 16,1 km/h (3 Bft) 93,48 %
04.12.2020 17:14 7,0 C 6,1 C 5,6 C 83 % 988,1 hPa 0,0 l/m 0 min 0 min 0 W/m 16,1 km/h (3 Bft) 95,74 %
04.12.2020 17:16 7,0 C 6,1 C 5,6 C 83 % 988,2 hPa 0,0 l/m 0 min 0 min 0 W/m 19,3 km/h (3 Bft) 95,74 %
04.12.2020 17:18 7,0 C 6,1 C 6,1 C 83 % 988,2 hPa 0,0 l/m 0 min 0 min 0 W/m 16,1 km/h (3 Bft) 95,74 %
04.12.2020 17:20 6,9 C 6,1 C 6,1 C 83 % 988,2 hPa 0,0 l/m 0 min 0 min 0 W/m 22,5 km/h (4 Bft) 95,74 %
04.12.2020 17:22 6,9 C 6,1 C 6,1 C 83 % 988,2 hPa 0,0 l/m 0 min 0 min 0 W/m 16,1 km/h (3 Bft) 93,48 %
04.12.2020 17:24 6,9 C 6,1 C 5,6 C 83 % 988,3 hPa 0,0 l/m 0 min 0 min 0 W/m 22,5 km/h (4 Bft) 95,74 %
04.12.2020 17:26 6,9 C 6,1 C 5,6 C 83 % 988,4 hPa 0,0 l/m 0 min 0 min 0 W/m 6,4 km/h (2 Bft) 95,74 %
04.12.2020 17:28 6,9 C 6,1 C 5,6 C 84 % 988,4 hPa 0,0 l/m 0 min 0 min 0 W/m 19,3 km/h (3 Bft) 95,74 %
04.12.2020 17:30 6,9 C 6,1 C 5,6 C 84 % 988,4 hPa 0,0 l/m 0 min 0 min 0 W/m 12,9 km/h (3 Bft) 97,87 %
04.12.2020 17:32 6,9 C 6,1 C 5,6 C 84 % 988,4 hPa 0,0 l/m 0 min 0 min 0 W/m 16,1 km/h (3 Bft) 97,92 %
04.12.2020 17:34 6,9 C 6,1 C 5,6 C 84 % 988,5 hPa 0,0 l/m 0 min 0 min 0 W/m 19,3 km/h (3 Bft) 97,83 %
04.12.2020 17:36 6,8 C 6,1 C 5,6 C 84 % 988,5 hPa 0,0 l/m 0 min 0 min 0 W/m 19,3 km/h (3 Bft) 97,87 %
04.12.2020 17:38 6,8 C 6,1 C 5,6 C 84 % 988,5 hPa 0,0 l/m 0 min 0 min 0 W/m 16,1 km/h (3 Bft) 95,74 %
04.12.2020 17:40 6,8 C 6,1 C 5,6 C 84 % 988,6 hPa 0,0 l/m 0 min 0 min 0 W/m 16,1 km/h (3 Bft) 95,74 %
04.12.2020 17:42 6,8 C 6,1 C 5,6 C 84 % 988,6 hPa 0,0 l/m 0 min 0 min 0 W/m 12,9 km/h (3 Bft) 95,74 %
04.12.2020 17:44 6,8 C 6,1 C 5,6 C 84 % 988,6 hPa 0,0 l/m 0 min 0 min 0 W/m 12,9 km/h (3 Bft) 97,87 %
04.12.2020 17:46 6,8 C 6,1 C 5,6 C 84 % 988,6 hPa 0,0 l/m 0 min 0 min 0 W/m 12,9 km/h (3 Bft) 97,83 %
04.12.2020 17:48 6,8 C 6,1 C 5,6 C 84 % 988,6 hPa 0,0 l/m 0 min 0 min 0 W/m 12,9 km/h (3 Bft) 95,74 %
04.12.2020 17:50 6,7 C 5,6 C 5,6 C 84 % 988,6 hPa 0,0 l/m 0 min 0 min 0 W/m 12,9 km/h (3 Bft) 95,74 %
04.12.2020 17:52 6,7 C 5,6 C 5,6 C 85 % 988,7 hPa 0,0 l/m 0 min 0 min 0 W/m 16,1 km/h (3 Bft) 93,62 %
04.12.2020 17:54 6,7 C 5,6 C 5,6 C 85 % 988,7 hPa 0,0 l/m 0 min 0 min 0 W/m 19,3 km/h (3 Bft) 95,74 %
04.12.2020 17:56 6,6 C 6,1 C 5,6 C 85 % 988,8 hPa 0,0 l/m 0 min 0 min 0 W/m 22,5 km/h (4 Bft) 95,65 %
04.12.2020 17:58 6,6 C 5,6 C 5,6 C 85 % 988,8 hPa 0,0 l/m 0 min 0 min 0 W/m 16,1 km/h (3 Bft) 93,62 %
04.12.2020 18:00 6,6 C 5,6 C 5,6 C 85 % 988,8 hPa 0,0 l/m 0 min 0 min 0 W/m 12,9 km/h (3 Bft) 95,74 %
04.12.2020 18:02 6,6 C 5,6 C 5,6 C 85 % 988,9 hPa 0,0 l/m 0 min 0 min 0 W/m 12,9 km/h (3 Bft) 93,62 %
04.12.2020 18:04 6,5 C 5,6 C 5,6 C 85 % 988,9 hPa 0,0 l/m 0 min 0 min 0 W/m 12,9 km/h (3 Bft) 95,74 %
04.12.2020 18:08 6,5 C 5,6 C 5,6 C 85 % 989,0 hPa 0,0 l/m 0 min 0 min 0 W/m 16,1 km/h (3 Bft) 95,70 %
04.12.2020 18:10 6,5 C 5,6 C 5,6 C 85 % 989,0 hPa 0,0 l/m 0 min 0 min 0 W/m 12,9 km/h (3 Bft) 93,62 %
04.12.2020 18:12 6,5 C 5,6 C 5,6 C 85 % 989,0 hPa 0,0 l/m 0 min 0 min 0 W/m 12,9 km/h (3 Bft) 95,74 %
04.12.2020 18:14 6,5 C 5,6 C 5,6 C 85 % 989,1 hPa 0,0 l/m 0 min 0 min 0 W/m 6,4 km/h (2 Bft) 95,74 %
04.12.2020 18:16 6,4 C 5,6 C 5,6 C 86 % 989,1 hPa 0,0 l/m 0 min 0 min 0 W/m 16,1 km/h (3 Bft) 95,74 %
04.12.2020 18:18 6,4 C 5,6 C 5,6 C 86 % 989,2 hPa 0,0 l/m 0 min 0 min 0 W/m 16,1 km/h (3 Bft) 95,74 %
04.12.2020 18:20 6,4 C 5,6 C 5,6 C 86 % 989,2 hPa 0,0 l/m 0 min 0 min 0 W/m 16,1 km/h (3 Bft) 95,65 %
04.12.2020 18:22 6,4 C 5,6 C 5,6 C 86 % 989,1 hPa 0,0 l/m 0 min 0 min 0 W/m 12,9 km/h (3 Bft) 95,74 %
04.12.2020 18:24 6,4 C 5,6 C 5,6 C 86 % 989,1 hPa 0,0 l/m 0 min 0 min 0 W/m 12,9 km/h (3 Bft) 95,74 %
04.12.2020 18:26 6,4 C 5,6 C 5,6 C 86 % 989,2 hPa 0,0 l/m 0 min 0 min 0 W/m 12,9 km/h (3 Bft) 95,74 %
04.12.2020 18:28 6,4 C 5,6 C 5,0 C 86 % 989,2 hPa 0,0 l/m 0 min 0 min 0 W/m 3,2 km/h (1 Bft) 97,87 %
04.12.2020 18:30 6,4 C 5,6 C 5,0 C 86 % 989,2 hPa 0,0 l/m 0 min 0 min 0 W/m 12,9 km/h (3 Bft) 97,87 %
04.12.2020 18:32 6,3 C 5,6 C 5,0 C 86 % 989,3 hPa 0,0 l/m 0 min 0 min 0 W/m 3,2 km/h (1 Bft) 95,92 %
04.12.2020 18:34 6,3 C 5,6 C 5,0 C 86 % 989,3 hPa 0,0 l/m 0 min 0 min 0 W/m 3,2 km/h (1 Bft) 100,00 %
04.12.2020 18:36 6,3 C 5,6 C 5,0 C 86 % 989,3 hPa 0,0 l/m 0 min 0 min 0 W/m 3,2 km/h (1 Bft) 97,87 %
04.12.2020 18:38 6,3 C 5,0 C 5,0 C 86 % 989,4 hPa 0,0 l/m 0 min 0 min 0 W/m 0,0 km/h (0 Bft) 100,00 %
04.12.2020 18:40 6,3 C 5,0 C 5,0 C 86 % 989,4 hPa 0,0 l/m 0 min 0 min 0 W/m 3,2 km/h (1 Bft) 100,00 %
04.12.2020 18:42 6,3 C 5,0 C 5,0 C 86 % 989,4 hPa 0,0 l/m 0 min 0 min 0 W/m 3,2 km/h (1 Bft) 97,87 %
04.12.2020 18:44 6,2 C 5,0 C 5,0 C 86 % 989,4 hPa 0,0 l/m 0 min 0 min 0 W/m 0,0 km/h (0 Bft) 100,00 %
04.12.2020 18:46 6,2 C 5,0 C 5,0 C 86 % 989,4 hPa 0,0 l/m 0 min 0 min 0 W/m 0,0 km/h (0 Bft) 100,00 %
04.12.2020 18:48 6,2 C 5,0 C 4,5 C 86 % 989,5 hPa 0,0 l/m 0 min 0 min 0 W/m 3,2 km/h (1 Bft) 100,00 %
04.12.2020 18:50 6,1 C 5,0 C 4,5 C 86 % 989,4 hPa 0,0 l/m 0 min 0 min 0 W/m 0,0 km/h (0 Bft) 100,00 %
04.12.2020 18:52 6,1 C 5,0 C 4,5 C 86 % 989,5 hPa 0,0 l/m 0 min 0 min 0 W/m 0,0 km/h (0 Bft) 100,00 %
04.12.2020 18:54 6,1 C 5,0 C 5,0 C 86 % 989,4 hPa 0,0 l/m 0 min 0 min 0 W/m 0,0 km/h (0 Bft) 100,00 %
04.12.2020 18:56 6,1 C 5,0 C 5,0 C 86 % 989,5 hPa 0,0 l/m 0 min 0 min 0 W/m 0,0 km/h (0 Bft) 100,00 %
04.12.2020 18:58 6,1 C 5,0 C 4,5 C 87 % 989,4 hPa 0,0 l/m 0 min 0 min 0 W/m 3,2 km/h (1 Bft) 100,00 %
04.12.2020 19:00 6,0 C 5,0 C 4,5 C 87 % 989,4 hPa 0,0 l/m 0 min 0 min 0 W/m 3,2 km/h (1 Bft) 100,00 %
04.12.2020 19:02 6,0 C 5,0 C 4,5 C 87 % 989,5 hPa 0,0 l/m 0 min 0 min 0 W/m 0,0 km/h (0 Bft) 97,92 %
04.12.2020 19:04 6,0 C 5,0 C 4,5 C 87 % 989,4 hPa 0,0 l/m 0 min 0 min 0 W/m 0,0 km/h (0 Bft) 44,44 %
04.12.2020 19:06 6,0 C 5,0 C 4,5 C 87 % 989,5 hPa 0,0 l/m 0 min 0 min 0 W/m 3,2 km/h (1 Bft) 95,65 %
04.12.2020 19:08 5,9 C 4,4 C 4,5 C 87 % 989,5 hPa 0,0 l/m 0 min 0 min 0 W/m 3,2 km/h (1 Bft) 100,00 %
04.12.2020 19:10 5,9 C 4,4 C 4,5 C 87 % 989,5 hPa 0,0 l/m 0 min 0 min 0 W/m 0,0 km/h (0 Bft) 100,00 %
04.12.2020 19:12 5,9 C 4,4 C 4,5 C 87 % 989,6 hPa 0,0 l/m 0 min 0 min 0 W/m 0,0 km/h (0 Bft) 100,00 %
04.12.2020 19:14 5,9 C 4,4 C 4,5 C 87 % 989,7 hPa 0,0 l/m 0 min 0 min 0 W/m 0,0 km/h (0 Bft) 100,00 %
04.12.2020 19:16 5,9 C 4,4 C 4,5 C 87 % 989,7 hPa 0,0 l/m 0 min 0 min 0 W/m 0,0 km/h (0 Bft) 100,00 %
04.12.2020 19:18 5,8 C 5,0 C 4,5 C 87 % 989,7 hPa 0,0 l/m 0 min 0 min 0 W/m 0,0 km/h (0 Bft) 100,00 %
04.12.2020 19:20 5,8 C 5,0 C 4,5 C 87 % 989,7 hPa 0,0 l/m 0 min 0 min 0 W/m 0,0 km/h (0 Bft) 100,00 %
04.12.2020 19:22 5,8 C 5,0 C 4,5 C 87 % 989,7 hPa 0,0 l/m 0 min 0 min 0 W/m 3,2 km/h (1 Bft) 97,87 %
04.12.2020 19:24 5,7 C 5,0 C 4,5 C 87 % 989,8 hPa 0,0 l/m 0 min 0 min 0 W/m 0,0 km/h (0 Bft) 100,00 %
04.12.2020 19:26 5,7 C 4,4 C 4,5 C 88 % 989,8 hPa 0,0 l/m 0 min 0 min 0 W/m 0,0 km/h (0 Bft) 100,00 %
04.12.2020 19:28 5,6 C 4,4 C 4,5 C 88 % 989,8 hPa 0,0 l/m 0 min 0 min 0 W/m 0,0 km/h (0 Bft) 100,00 %
04.12.2020 19:30 5,6 C 4,4 C 4,5 C 88 % 989,9 hPa 0,0 l/m 0 min 0 min 0 W/m 0,0 km/h (0 Bft) 100,00 %
04.12.2020 19:32 5,6 C 4,4 C 4,5 C 88 % 990,0 hPa 0,0 l/m 0 min 0 min 0 W/m 0,0 km/h (0 Bft) 100,00 %
04.12.2020 19:34 5,6 C 4,4 C 4,5 C 88 % 990,0 hPa 0,0 l/m 0 min 0 min 0 W/m 0,0 km/h (0 Bft) 97,87 %
04.12.2020 19:36 5,5 C 4,4 C 4,5 C 88 % 990,0 hPa 0,0 l/m 0 min 0 min 0 W/m 0,0 km/h (0 Bft) 97,87 %
04.12.2020 19:38 5,5 C 4,4 C 4,5 C 88 % 990,0 hPa 0,0 l/m 0 min 0 min 0 W/m 0,0 km/h (0 Bft) 97,87 %
04.12.2020 19:40 5,5 C 4,4 C 4,5 C 88 % 990,0 hPa 0,0 l/m 0 min 0 min 0 W/m 0,0 km/h (0 Bft) 97,87 %
04.12.2020 19:42 5,5 C 4,4 C 3,9 C 88 % 989,9 hPa 0,0 l/m 0 min 0 min 0 W/m 0,0 km/h (0 Bft) 97,83 %
04.12.2020 19:44 5,5 C 3,9 C 3,9 C 88 % 990,0 hPa 0,0 l/m 0 min 0 min 0 W/m 0,0 km/h (0 Bft) 97,87 %
04.12.2020 19:46 5,5 C 3,9 C 3,9 C 88 % 989,9 hPa 0,0 l/m 0 min 0 min 0 W/m 0,0 km/h (0 Bft) 97,87 %
04.12.2020 19:48 5,4 C 3,9 C 3,9 C 88 % 989,9 hPa 0,0 l/m 0 min 0 min 0 W/m 0,0 km/h (0 Bft) 93,62 %
04.12.2020 19:50 5,4 C 3,9 C 3,9 C 88 % 989,9 hPa 0,0 l/m 0 min 0 min 0 W/m 0,0 km/h (0 Bft) 97,87 %
04.12.2020 19:52 5,4 C 3,3 C 3,9 C 88 % 989,9 hPa 0,0 l/m 0 min 0 min 0 W/m 0,0 km/h (0 Bft) 97,83 %
04.12.2020 19:54 5,4 C 3,3 C 3,4 C 88 % 989,9 hPa 0,0 l/m 0 min 0 min 0 W/m 0,0 km/h (0 Bft) 97,87 %
04.12.2020 19:56 5,3 C 3,3 C 3,4 C 88 % 990,0 hPa 0,0 l/m 0 min 0 min 0 W/m 0,0 km/h (0 Bft) 93,62 %
04.12.2020 19:58 5,3 C 3,3 C 3,4 C 88 % 990,1 hPa 0,0 l/m 0 min 0 min 0 W/m 0,0 km/h (0 Bft) 97,87 %
04.12.2020 20:00 5,3 C 3,3 C 3,4 C 88 % 990,0 hPa 0,0 l/m 0 min 0 min 0 W/m 0,0 km/h (0 Bft) 97,87 %
04.12.2020 20:02 5,2 C 3,3 C 3,4 C 88 % 990,1 hPa 0,0 l/m 0 min 0 min 0 W/m 0,0 km/h (0 Bft) 97,87 %
04.12.2020 20:04 5,1 C 3,3 C 3,4 C 88 % 990,1 hPa 0,0 l/m 0 min 0 min 0 W/m 0,0 km/h (0 Bft) 97,83 %
04.12.2020 20:06 5,1 C 3,3 C 3,4 C 88 % 990,1 hPa 0,0 l/m 0 min 0 min 0 W/m 0,0 km/h (0 Bft) 93,62 %
04.12.2020 20:08 5,1 C 3,3 C 3,4 C 88 % 990,2 hPa 0,0 l/m 0 min 0 min 0 W/m 0,0 km/h (0 Bft) 93,62 %
04.12.2020 20:10 5,0 C 3,3 C 3,4 C 88 % 990,2 hPa 0,0 l/m 0 min 0 min 0 W/m 0,0 km/h (0 Bft) 97,87 %
04.12.2020 20:12 5,0 C 3,3 C 3,4 C 88 % 990,2 hPa 0,0 l/m 0 min 0 min 0 W/m 0,0 km/h (0 Bft) 97,87 %
04.12.2020 20:14 4,9 C 3,3 C 3,4 C 88 % 990,2 hPa 0,0 l/m 0 min 0 min 0 W/m 0,0 km/h (0 Bft) 97,87 %
04.12.2020 20:16 4,9 C 3,3 C 3,4 C 88 % 990,3 hPa 0,0 l/m 0 min 0 min 0 W/m 0,0 km/h (0 Bft) 93,48 %
04.12.2020 20:18 4,9 C 3,3 C 3,4 C 88 % 990,3 hPa 0,0 l/m 0 min 0 min 0 W/m 0,0 km/h (0 Bft) 93,62 %
04.12.2020 20:20 4,8 C 3,3 C 3,4 C 88 % 990,3 hPa 0,0 l/m 0 min 0 min 0 W/m 0,0 km/h (0 Bft) 93,62 %
04.12.2020 20:22 4,8 C 3,3 C 3,4 C 88 % 990,3 hPa 0,0 l/m 0 min 0 min 0 W/m 0,0 km/h (0 Bft) 93,88 %
04.12.2020 20:24 4,8 C 3,3 C 3,4 C 88 % 990,3 hPa 0,0 l/m 0 min 0 min 0 W/m 0,0 km/h (0 Bft) 97,87 %
04.12.2020 20:26 4,7 C 3,3 C 3,4 C 88 % 990,4 hPa 0,0 l/m 0 min 0 min 0 W/m 0,0 km/h (0 Bft) 97,87 %
04.12.2020 20:28 4,6 C 3,3 C 3,4 C 88 % 990,4 hPa 0,0 l/m 0 min 0 min 0 W/m 0,0 km/h (0 Bft) 97,87 %
04.12.2020 20:30 4,6 C 3,3 C 3,4 C 88 % 990,5 hPa 0,0 l/m 0 min 0 min 0 W/m 0,0 km/h (0 Bft) 97,87 %
04.12.2020 20:32 4,6 C 3,3 C 3,4 C 88 % 990,4 hPa 0,0 l/m 0 min 0 min 0 W/m 0,0 km/h (0 Bft) 97,83 %
04.12.2020 20:34 4,6 C 3,3 C 3,4 C 88 % 990,4 hPa 0,0 l/m 0 min 0 min 0 W/m 0,0 km/h (0 Bft) 97,87 %
04.12.2020 20:36 4,5 C 3,3 C 3,4 C 88 % 990,4 hPa 0,0 l/m 0 min 0 min 0 W/m 0,0 km/h (0 Bft) 97,87 %
04.12.2020 20:38 4,5 C 3,3 C 3,4 C 89 % 990,4 hPa 0,0 l/m 0 min 0 min 0 W/m 0,0 km/h (0 Bft) 97,87 %
04.12.2020 20:40 4,5 C 3,3 C 3,4 C 89 % 990,5 hPa 0,0 l/m 0 min 0 min 0 W/m 0,0 km/h (0 Bft) 97,87 %
04.12.2020 20:42 4,5 C 3,3 C 3,4 C 89 % 990,5 hPa 0,0 l/m 0 min 0 min 0 W/m 0,0 km/h (0 Bft) 97,83 %
04.12.2020 20:44 4,5 C 3,3 C 3,4 C 89 % 990,5 hPa 0,0 l/m 0 min 0 min 0 W/m 0,0 km/h (0 Bft) 97,87 %
04.12.2020 20:46 4,4 C 3,3 C 3,4 C 89 % 990,5 hPa 0,0 l/m 0 min 0 min 0 W/m 0,0 km/h (0 Bft) 93,62 %
04.12.2020 20:48 4,4 C 3,3 C 3,4 C 89 % 990,5 hPa 0,0 l/m 0 min 0 min 0 W/m 0,0 km/h (0 Bft) 97,87 %
04.12.2020 20:50 4,4 C 3,3 C 3,4 C 89 % 990,5 hPa 0,0 l/m 0 min 0 min 0 W/m 0,0 km/h (0 Bft) 97,87 %
04.12.2020 20:52 4,4 C 3,3 C 3,4 C 89 % 990,6 hPa 0,0 l/m 0 min 0 min 0 W/m 0,0 km/h (0 Bft) 95,74 %
04.12.2020 20:54 4,4 C 3,3 C 3,4 C 89 % 990,6 hPa 0,0 l/m 0 min 0 min 0 W/m 0,0 km/h (0 Bft) 97,83 %
04.12.2020 20:56 4,4 C 3,3 C 3,4 C 89 % 990,6 hPa 0,0 l/m 0 min 0 min 0 W/m 0,0 km/h (0 Bft) 97,87 %
04.12.2020 20:58 4,4 C 3,9 C 3,4 C 89 % 990,7 hPa 0,0 l/m 0 min 0 min 0 W/m 0,0 km/h (0 Bft) 100,00 %
04.12.2020 21:00 4,3 C 3,9 C 3,4 C 89 % 990,7 hPa 0,0 l/m 0 min 0 min 0 W/m 0,0 km/h (0 Bft) 100,00 %
04.12.2020 21:02 4,3 C 3,9 C 3,9 C 90 % 990,8 hPa 0,0 l/m 0 min 0 min 0 W/m 0,0 km/h (0 Bft) 97,87 %
04.12.2020 21:04 4,3 C 3,9 C 3,9 C 90 % 990,8 hPa 0,0 l/m 0 min 0 min 0 W/m 0,0 km/h (0 Bft) 100,00 %
04.12.2020 21:06 4,3 C 3,9 C 3,9 C 90 % 990,8 hPa 0,0 l/m 0 min 0 min 0 W/m 0,0 km/h (0 Bft) 97,83 %
04.12.2020 21:08 4,3 C 3,9 C 3,9 C 90 % 990,8 hPa 0,0 l/m 0 min 0 min 0 W/m 0,0 km/h (0 Bft) 54,35 %
04.12.2020 21:10 4,3 C 3,9 C 3,4 C 90 % 990,8 hPa 0,0 l/m 0 min 0 min 0 W/m 0,0 km/h (0 Bft) 100,00 %
04.12.2020 21:12 4,3 C 3,9 C 3,4 C 90 % 990,9 hPa 0,0 l/m 0 min 0 min 0 W/m 0,0 km/h (0 Bft) 100,00 %
04.12.2020 21:14 4,3 C 3,9 C 3,9 C 90 % 990,9 hPa 0,0 l/m 0 min 0 min 0 W/m 0,0 km/h (0 Bft) 100,00 %
04.12.2020 21:16 4,3 C 3,3 C 3,9 C 90 % 990,9 hPa 0,0 l/m 0 min 0 min 0 W/m 0,0 km/h (0 Bft) 100,00 %
04.12.2020 21:18 4,3 C 3,3 C 3,4 C 90 % 990,9 hPa 0,0 l/m 0 min 0 min 0 W/m 0,0 km/h (0 Bft) 100,00 %
04.12.2020 21:20 4,3 C 3,3 C 3,4 C 90 % 990,9 hPa 0,0 l/m 0 min 0 min 0 W/m 0,0 km/h (0 Bft) 100,00 %
04.12.2020 21:22 4,3 C 3,3 C 3,4 C 90 % 990,9 hPa 0,0 l/m 0 min 0 min 0 W/m 0,0 km/h (0 Bft) 100,00 %
04.12.2020 21:24 4,3 C 3,3 C 3,4 C 91 % 990,9 hPa 0,0 l/m 0 min 0 min 0 W/m 0,0 km/h (0 Bft) 100,00 %
04.12.2020 21:26 4,3 C 3,3 C 3,4 C 91 % 990,9 hPa 0,0 l/m 0 min 0 min 0 W/m 0,0 km/h (0 Bft) 97,87 %
04.12.2020 21:28 4,3 C 3,3 C 3,4 C 91 % 990,9 hPa 0,0 l/m 0 min 0 min 0 W/m 0,0 km/h (0 Bft) 100,00 %
04.12.2020 21:30 4,3 C 3,3 C 3,4 C 91 % 990,9 hPa 0,0 l/m 0 min 0 min 0 W/m 0,0 km/h (0 Bft) 100,00 %
04.12.2020 21:32 4,3 C 2,8 C 3,4 C 91 % 990,8 hPa 0,0 l/m 0 min 0 min 0 W/m 0,0 km/h (0 Bft) 100,00 %
04.12.2020 21:34 4,3 C 2,8 C 3,4 C 91 % 990,7 hPa 0,0 l/m 0 min 0 min 0 W/m 0,0 km/h (0 Bft) 100,00 %
04.12.2020 21:36 4,2 C 2,8 C 3,4 C 91 % 990,8 hPa 0,0 l/m 0 min 0 min 0 W/m 0,0 km/h (0 Bft) 97,87 %
04.12.2020 21:38 4,2 C 2,8 C 3,4 C 91 % 990,7 hPa 0,0 l/m 0 min 0 min 0 W/m 0,0 km/h (0 Bft) 100,00 %
04.12.2020 21:40 4,1 C 2,8 C 2,8 C 91 % 990,7 hPa 0,0 l/m 0 min 0 min 0 W/m 0,0 km/h (0 Bft) 100,00 %
04.12.2020 21:42 4,1 C 2,8 C 2,8 C 91 % 990,7 hPa 0,0 l/m 0 min 0 min 0 W/m 0,0 km/h (0 Bft) 100,00 %
04.12.2020 21:44 4,1 C 2,8 C 2,8 C 91 % 990,7 hPa 0,0 l/m 0 min 0 min 0 W/m 0,0 km/h (0 Bft) 100,00 %
04.12.2020 21:46 4,1 C 2,8 C 2,8 C 91 % 990,7 hPa 0,0 l/m 0 min 0 min 0 W/m 0,0 km/h (0 Bft) 100,00 %
04.12.2020 21:48 4,1 C 2,8 C 2,8 C 91 % 990,6 hPa 0,0 l/m 0 min 0 min 0 W/m 0,0 km/h (0 Bft) 100,00 %
04.12.2020 21:50 4,0 C 2,8 C 2,8 C 91 % 990,6 hPa 0,0 l/m 0 min 0 min 0 W/m 0,0 km/h (0 Bft) 100,00 %
04.12.2020 21:52 4,0 C 2,8 C 2,8 C 91 % 990,6 hPa 0,0 l/m 0 min 0 min 0 W/m 0,0 km/h (0 Bft) 97,73 %
04.12.2020 21:54 4,0 C 2,8 C 2,8 C 91 % 990,6 hPa 0,0 l/m 0 min 0 min 0 W/m 0,0 km/h (0 Bft) 100,00 %
04.12.2020 21:56 4,0 C 2,8 C 2,8 C 91 % 990,7 hPa 0,0 l/m 0 min 0 min 0 W/m 0,0 km/h (0 Bft) 100,00 %
04.12.2020 21:58 4,0 C 2,8 C 2,8 C 91 % 990,7 hPa 0,0 l/m 0 min 0 min 0 W/m 0,0 km/h (0 Bft) 100,00 %
04.12.2020 22:00 3,9 C 2,8 C 2,8 C 91 % 990,7 hPa 0,0 l/m 0 min 0 min 0 W/m 0,0 km/h (0 Bft) 100,00 %
04.12.2020 22:02 3,9 C 2,8 C 2,8 C 91 % 990,7 hPa 0,0 l/m 0 min 0 min 0 W/m 0,0 km/h (0 Bft) 97,92 %
04.12.2020 22:04 3,9 C 2,2 C 2,8 C 91 % 990,7 hPa 0,0 l/m 0 min 0 min 0 W/m 0,0 km/h (0 Bft) 100,00 %
04.12.2020 22:06 3,9 C 2,2 C 2,2 C 91 % 990,8 hPa 0,0 l/m 0 min 0 min 0 W/m 0,0 km/h (0 Bft) 100,00 %
04.12.2020 22:08 3,8 C 2,2 C 2,2 C 91 % 990,9 hPa 0,0 l/m 0 min 0 min 0 W/m 0,0 km/h (0 Bft) 100,00 %
04.12.2020 22:10 3,8 C 2,2 C 2,2 C 91 % 990,9 hPa 0,0 l/m 0 min 0 min 0 W/m 0,0 km/h (0 Bft) 100,00 %
04.12.2020 22:12 3,8 C 2,2 C 2,2 C 91 % 990,9 hPa 0,0 l/m 0 min 0 min 0 W/m 0,0 km/h (0 Bft) 100,00 %
04.12.2020 22:14 3,8 C 2,2 C 2,2 C 91 % 990,9 hPa 0,0 l/m 0 min 0 min 0 W/m 0,0 km/h (0 Bft) 100,00 %
04.12.2020 22:16 3,7 C 2,2 C 2,2 C 91 % 990,9 hPa 0,0 l/m 0 min 0 min 0 W/m 0,0 km/h (0 Bft) 100,00 %
04.12.2020 22:18 3,7 C 1,7 C 2,2 C 91 % 991,0 hPa 0,0 l/m 0 min 0 min 0 W/m 0,0 km/h (0 Bft) 100,00 %
04.12.2020 22:20 3,6 C 1,7 C 2,2 C 91 % 991,0 hPa 0,0 l/m 0 min 0 min 0 W/m 0,0 km/h (0 Bft) 100,00 %
04.12.2020 22:22 3,6 C 1,7 C 2,2 C 91 % 991,0 hPa 0,0 l/m 0 min 0 min 0 W/m 0,0 km/h (0 Bft) 100,00 %
04.12.2020 22:24 3,5 C 1,7 C 2,2 C 91 % 991,0 hPa 0,0 l/m 0 min 0 min 0 W/m 0,0 km/h (0 Bft) 97,83 %
04.12.2020 22:26 3,5 C 1,7 C 2,2 C 91 % 991,0 hPa 0,0 l/m 0 min 0 min 0 W/m 0,0 km/h (0 Bft) 97,87 %
04.12.2020 22:28 3,5 C 1,7 C 2,2 C 91 % 991,1 hPa 0,0 l/m 0 min 0 min 0 W/m 0,0 km/h (0 Bft) 100,00 %
04.12.2020 22:30 3,4 C 1,7 C 2,2 C 91 % 991,0 hPa 0,0 l/m 0 min 0 min 0 W/m 0,0 km/h (0 Bft) 100,00 %
04.12.2020 22:32 3,4 C 1,7 C 2,2 C 91 % 991,0 hPa 0,0 l/m 0 min 0 min 0 W/m 0,0 km/h (0 Bft) 97,92 %
04.12.2020 22:34 3,4 C 1,7 C 2,2 C 91 % 991,1 hPa 0,0 l/m 0 min 0 min 0 W/m 0,0 km/h (0 Bft) 95,65 %
04.12.2020 22:36 3,4 C 1,7 C 2,2 C 91 % 991,1 hPa 0,0 l/m 0 min 0 min 0 W/m 0,0 km/h (0 Bft) 97,87 %
04.12.2020 22:38 3,3 C 1,7 C 2,2 C 91 % 991,1 hPa 0,0 l/m 0 min 0 min 0 W/m 0,0 km/h (0 Bft) 100,00 %
04.12.2020 22:40 3,3 C 1,7 C 2,2 C 91 % 991,0 hPa 0,0 l/m 0 min 0 min 0 W/m 0,0 km/h (0 Bft) 95,74 %
04.12.2020 22:42 3,3 C 1,7 C 2,2 C 90 % 991,0 hPa 0,0 l/m 0 min 0 min 0 W/m 0,0 km/h (0 Bft) 95,74 %
04.12.2020 22:44 3,3 C 1,7 C 2,2 C 90 % 991,0 hPa 0,0 l/m 0 min 0 min 0 W/m 0,0 km/h (0 Bft) 93,62 %
04.12.2020 22:46 3,2 C 1,7 C 2,2 C 90 % 990,9 hPa 0,0 l/m 0 min 0 min 0 W/m 0,0 km/h (0 Bft) 95,74 %
04.12.2020 22:48 3,2 C 1,1 C 2,2 C 91 % 990,9 hPa 0,0 l/m 0 min 0 min 0 W/m 0,0 km/h (0 Bft) 93,62 %
04.12.2020 22:50 3,1 C 1,1 C 1,7 C 91 % 990,9 hPa 0,0 l/m 0 min 0 min 0 W/m 0,0 km/h (0 Bft) 95,65 %
04.12.2020 22:52 3,1 C 1,1 C 1,7 C 91 % 990,9 hPa 0,0 l/m 0 min 0 min 0 W/m 0,0 km/h (0 Bft) 95,74 %
04.12.2020 22:54 3,1 C 1,1 C 1,7 C 91 % 990,9 hPa 0,0 l/m 0 min 0 min 0 W/m 0,0 km/h (0 Bft) 97,87 %
04.12.2020 22:56 3,0 C 1,1 C 1,7 C 91 % 990,9 hPa 0,0 l/m 0 min 0 min 0 W/m 0,0 km/h (0 Bft) 93,62 %
04.12.2020 22:58 3,0 C 1,1 C 1,7 C 91 % 990,9 hPa 0,0 l/m 0 min 0 min 0 W/m 0,0 km/h (0 Bft) 93,62 %
04.12.2020 23:00 3,0 C 1,1 C 1,7 C 91 % 990,9 hPa 0,0 l/m 0 min 0 min 0 W/m 0,0 km/h (0 Bft) 93,62 %
04.12.2020 23:02 2,9 C 1,1 C 1,7 C 91 % 990,9 hPa 0,0 l/m 0 min 0 min 0 W/m 0,0 km/h (0 Bft) 91,30 %
04.12.2020 23:04 2,9 C 1,1 C 1,7 C 91 % 990,9 hPa 0,0 l/m 0 min 0 min 0 W/m 0,0 km/h (0 Bft) 93,62 %
04.12.2020 23:06 2,9 C 1,1 C 1,7 C 91 % 991,0 hPa 0,0 l/m 0 min 0 min 0 W/m 0,0 km/h (0 Bft) 93,62 %
04.12.2020 23:08 2,8 C 1,1 C 1,7 C 91 % 990,9 hPa 0,0 l/m 0 min 0 min 0 W/m 0,0 km/h (0 Bft) 93,62 %
04.12.2020 23:10 2,8 C 1,1 C 1,7 C 91 % 990,9 hPa 0,0 l/m 0 min 0 min 0 W/m 0,0 km/h (0 Bft) 95,74 %
04.12.2020 23:12 2,8 C 1,1 C 1,7 C 91 % 990,9 hPa 0,0 l/m 0 min 0 min 0 W/m 0,0 km/h (0 Bft) 93,62 %
04.12.2020 23:14 2,7 C 0,6 C 1,1 C 91 % 990,9 hPa 0,0 l/m 0 min 0 min 0 W/m 0,0 km/h (0 Bft) 95,65 %
04.12.2020 23:16 2,7 C 0,6 C 1,1 C 91 % 990,9 hPa 0,0 l/m 0 min 0 min 0 W/m 0,0 km/h (0 Bft) 91,49 %
04.12.2020 23:18 2,6 C 0,6 C 1,1 C 91 % 990,9 hPa 0,0 l/m 0 min 0 min 0 W/m 0,0 km/h (0 Bft) 95,74 %
04.12.2020 23:20 2,6 C 0,6 C 1,1 C 91 % 990,9 hPa 0,0 l/m 0 min 0 min 0 W/m 0,0 km/h (0 Bft) 95,74 %
04.12.2020 23:22 2,6 C 0,6 C 1,1 C 91 % 990,9 hPa 0,0 l/m 0 min 0 min 0 W/m 0,0 km/h (0 Bft) 95,74 %
04.12.2020 23:24 2,5 C 0,6 C 1,1 C 91 % 990,9 hPa 0,0 l/m 0 min 0 min 0 W/m 0,0 km/h (0 Bft) 95,74 %
04.12.2020 23:26 2,5 C 0,6 C 1,1 C 91 % 991,0 hPa 0,0 l/m 0 min 0 min 0 W/m 0,0 km/h (0 Bft) 95,65 %
04.12.2020 23:28 2,5 C 0,6 C 1,1 C 91 % 991,0 hPa 0,0 l/m 0 min 0 min 0 W/m 0,0 km/h (0 Bft) 95,74 %
04.12.2020 23:30 2,4 C 0,6 C 1,1 C 91 % 991,0 hPa 0,0 l/m 0 min 0 min 0 W/m 0,0 km/h (0 Bft) 93,62 %
04.12.2020 23:32 2,4 C 0,6 C 1,1 C 91 % 991,0 hPa 0,0 l/m 0 min 0 min 0 W/m 0,0 km/h (0 Bft) 91,49 %
04.12.2020 23:34 2,4 C 0,6 C 1,1 C 91 % 991,0 hPa 0,0 l/m 0 min 0 min 0 W/m 0,0 km/h (0 Bft) 95,74 %
04.12.2020 23:36 2,3 C 0,6 C 1,1 C 91 % 991,1 hPa 0,0 l/m 0 min 0 min 0 W/m 0,0 km/h (0 Bft) 95,65 %
04.12.2020 23:38 2,3 C 0,6 C 1,1 C 91 % 991,1 hPa 0,0 l/m 0 min 0 min 0 W/m 0,0 km/h (0 Bft) 95,74 %
04.12.2020 23:40 2,3 C 0,6 C 1,1 C 91 % 991,2 hPa 0,0 l/m 0 min 0 min 0 W/m 0,0 km/h (0 Bft) 97,87 %
04.12.2020 23:42 2,2 C 0,6 C 1,1 C 91 % 991,3 hPa 0,0 l/m 0 min 0 min 0 W/m 0,0 km/h (0 Bft) 95,74 %
04.12.2020 23:44 2,1 C 0,6 C 1,1 C 91 % 991,3 hPa 0,0 l/m 0 min 0 min 0 W/m 0,0 km/h (0 Bft) 97,87 %
04.12.2020 23:46 2,1 C 0,6 C 1,1 C 91 % 991,4 hPa 0,0 l/m 0 min 0 min 0 W/m 0,0 km/h (0 Bft) 97,87 %
04.12.2020 23:48 2,1 C 0,6 C 1,1 C 91 % 991,4 hPa 0,0 l/m 0 min 0 min 0 W/m 0,0 km/h (0 Bft) 97,83 %
04.12.2020 23:50 2,1 C 0,6 C 1,1 C 91 % 991,4 hPa 0,0 l/m 0 min 0 min 0 W/m 0,0 km/h (0 Bft) 97,87 %
04.12.2020 23:52 2,0 C 0,6 C 1,1 C 91 % 991,4 hPa 0,0 l/m 0 min 0 min 0 W/m 0,0 km/h (0 Bft) 97,87 %
04.12.2020 23:54 2,0 C 0,6 C 1,1 C 91 % 991,4 hPa 0,0 l/m 0 min 0 min 0 W/m 0,0 km/h (0 Bft) 97,87 %
04.12.2020 23:56 2,0 C 0,6 C 1,1 C 91 % 991,4 hPa 0,0 l/m 0 min 0 min 0 W/m 0,0 km/h (0 Bft) 97,87 %
04.12.2020 23:58 2,0 C 0,6 C 1,1 C 91 % 991,4 hPa 0,0 l/m 0 min 0 min 0 W/m 0,0 km/h (0 Bft) 97,87 %
_ Min-Zeit 23:52 23:14 23:14 13:48 05:04 - - - - 18:38 00:02
Minimum _ 2,0 C 0,6 C 1,1 C 79 % 981,9 hPa - - - - 0,0 km/h (0 Bft) 14,29 %
_ Max-Zeit 12:58 11:16 12:52 01:44 23:46 01:28 11:14 00:18 12:18 02:46 00:16
Maximum _ 8,4 C 11,1 C 11,1 C 93 % 991,4 hPa 0,2 l/m 2 min 2 min 313 W/m 41,8 km/h
S (6 Bft)
100,00 %
Durchschnitt _ 5,6 C 5,0 C 5,3 C 88 % 986,1 hPa #0,2 l/m #36 min. #1:52 h 66 W/m 16,7 km/h (3 Bft) 97,11 %
© 2020 W. Hausmann